[{"header": {"dx": 0.06612293990616946, "dy": 0.0552356325346848, "nx": 98, "ny": 59, "la1": 35.046912555036876, "la2": 31.78801023549047, "lo1": -121.43107172385933, "lo2": -114.95102361305473, "refTime": "2026040802", "parameterCategory": 1, "parameterNumber": 2}, "data": [10.43, 10.75, 11.03, 11.36, 11.36, 11.36, 11.03, 10.43, 10.4, 10.36, 10.36, 9.08, 8.03, 5.46, 5.2, 2.6, 2.24, 2.24, 2.24, 2.68, 2.12, 0.0, -1.33, -1.49, -0.73, -0.73, -0.73, -0.79, -0.7, -0.61, 0.0, 0.0, 0.0, 0.65, 1.2, 1.88, 2.15, 2.84, 2.84, 3.16, 3.48, 4.74, 6.18, 7.47, 8.75, 10.9, 13.51, 14.13, 14.74, 14.49, 12.08, 8.0, 5.16, 5.59, 6.66, 7.56, 8.05, 8.49, 8.49, 8.05, 8.05, 8.01, 8.46, 8.36, 7.89, 7.89, 7.92, 8.36, 8.36, 8.82, 9.26, 9.72, 9.36, 8.46, 8.46, 8.91, 8.01, 6.22, 3.53, 2.68, 1.34, 0.45, 0.0, 0.0, 0.6, 1.26, 1.7, 2.17, 2.63, 3.13, 3.58, 4.02, 3.13, 2.86, 2.07, 2.79, 3.48, 4.09, 10.43, 10.75, 10.75, 11.36, 11.06, 11.06, 11.06, 10.75, 10.72, 10.69, 10.09, 9.56, 7.68, 6.32, 6.8, 6.14, 2.24, 2.24, 2.24, 2.6, 2.12, 0.0, -0.87, -0.98, -0.7, -0.66, -0.73, -0.81, -0.73, -0.7, -0.7, 0.0, 0.0, 0.61, 1.4, 2.15, 2.84, 3.16, 2.79, 3.79, 4.36, 5.44, 7.59, 8.46, 10.34, 12.33, 13.35, 13.74, 13.8, 12.52, 9.03, 4.24, 3.13, 5.77, 6.67, 8.05, 8.49, 8.49, 8.49, 8.49, 8.49, 8.46, 8.46, 8.46, 8.46, 8.36, 8.36, 8.46, 8.91, 8.91, 9.81, 9.36, 8.91, 9.36, 9.36, 9.36, 8.01, 6.22, 3.53, 2.68, 1.34, 0.45, 0.0, 0.0, 0.6, 1.26, 1.7, 2.17, 2.63, 3.13, 3.58, 4.02, 3.13, 2.86, 2.07, 2.79, 3.48, 4.09, 10.43, 10.43, 10.75, 10.75, 11.06, 11.06, 11.06, 10.45, 10.75, 10.72, 9.8, 7.93, 7.27, 7.06, 6.07, 5.59, 3.95, 2.6, 2.6, 2.54, 2.4, 1.24, 0.0, -1.83, -0.88, -0.66, -0.73, -0.73, -0.73, -0.81, -1.35, -0.73, 0.0, 0.0, 1.4, 2.53, 3.48, 3.72, 4.36, 4.56, 5.78, 7.73, 9.49, 10.8, 11.73, 12.77, 12.56, 11.7, 10.24, 6.44, 2.24, 2.12, 3.13, 5.81, 6.71, 8.05, 8.49, 8.94, 8.94, 8.94, 8.49, 8.05, 8.49, 8.49, 8.01, 8.46, 8.46, 8.91, 9.36, 9.36, 9.81, 10.28, 10.28, 9.83, 9.39, 9.39, 8.49, 6.71, 4.02, 3.13, 2.24, 1.2, 0.0, 0.0, 0.42, 0.8, 1.26, 1.86, 2.6, 3.07, 3.51, 3.13, 2.8, 1.84, 2.3, 2.79, 3.49, 4.0, 10.43, 10.43, 10.75, 10.75, 10.45, 10.45, 10.76, 10.45, 11.03, 10.75, 9.82, 8.24, 7.08, 5.69, 4.81, 4.8, 4.66, 4.57, 2.8, 2.4, 2.8, 2.54, 0.85, -1.47, -2.2, -1.05, -1.35, -0.73, -0.81, -0.76, -0.78, -1.55, -1.55, 0.0, 0.98, 2.76, 3.63, 5.37, 5.28, 6.62, 8.46, 10.05, 10.05, 10.15, 10.34, 10.43, 9.56, 7.69, 4.66, 2.54, 2.23, 3.51, 4.47, 5.81, 6.26, 7.6, 8.49, 8.94, 9.39, 9.39, 8.94, 8.49, 8.49, 8.05, 8.05, 8.49, 8.49, 8.94, 9.39, 9.83, 9.83, 9.83, 10.28, 9.83, 9.39, 8.91, 8.46, 7.56, 4.47, 3.13, 2.68, 2.12, 0.95, 0.6, 0.6, 0.8, 1.26, 1.86, 2.4, 2.91, 3.07, 2.6, 1.61, 2.07, 2.07, 2.79, 3.72, 4.0, 10.43, 10.43, 10.43, 10.75, 10.45, 10.45, 10.45, 10.45, 11.03, 10.45, 9.84, 8.23, 7.08, 4.95, 4.81, 4.84, 4.66, 4.4, 3.2, 2.5, 2.21, 2.6, 1.49, 0.0, -1.6, -1.98, -2.12, -0.96, -1.14, 0.0, 0.0, -0.76, -1.54, -0.79, 1.07, 3.39, 4.36, 6.7, 7.82, 7.82, 8.5, 8.29, 7.52, 7.68, 8.06, 8.24, 7.21, 5.36, 3.95, 4.24, 3.51, 5.36, 5.36, 5.77, 6.21, 7.56, 8.46, 8.91, 9.36, 9.36, 8.9, 8.01, 8.01, 7.6, 7.6, 8.05, 8.49, 8.49, 8.94, 9.39, 9.83, 9.83, 9.39, 9.36, 8.91, 7.94, 7.89, 6.98, 4.73, 3.53, 3.07, 2.6, 2.12, 0.95, 0.6, 0.8, 1.58, 1.9, 2.5, 2.4, 2.24, 1.88, 1.33, 1.84, 2.07, 3.14, 3.72, 4.0, 9.82, 10.43, 10.43, 10.75, 10.45, 10.45, 10.45, 10.45, 10.75, 11.06, 9.84, 7.6, 6.42, 5.69, 4.81, 4.84, 4.46, 4.84, 4.46, 3.72, 3.0, 2.35, 0.96, 0.0, -1.07, -1.07, -2.06, -1.05, -1.0, 0.0, 0.0, 0.0, 0.0, 0.76, 1.41, 2.87, 3.87, 7.01, 8.74, 6.9, 4.75, 4.2, 4.65, 7.03, 8.55, 8.82, 6.98, 5.36, 5.36, 5.81, 6.26, 6.26, 5.81, 5.77, 6.65, 7.45, 7.89, 8.8, 9.26, 9.26, 8.36, 7.45, 7.11, 7.12, 7.56, 7.56, 8.01, 8.46, 8.46, 8.94, 9.39, 9.39, 9.39, 8.94, 8.46, 7.45, 6.07, 5.34, 3.6, 3.32, 2.91, 2.91, 2.4, 1.26, 1.26, 1.24, 1.58, 2.23, 2.4, 1.79, 1.2, 1.33, 1.33, 1.84, 1.84, 3.14, 4.0, 3.45, 9.82, 10.13, 10.43, 10.43, 10.45, 10.45, 10.45, 10.45, 10.75, 10.76, 9.21, 6.33, 5.76, 6.44, 7.07, 4.84, 5.43, 5.82, 5.37, 5.0, 4.46, 4.0, 1.49, 0.0, -1.07, -1.07, -1.05, -2.08, -2.23, -2.57, -1.01, 0.0, 1.47, 3.27, 3.61, 2.82, 3.91, 5.5, 6.45, 3.88, 2.06, 2.21, 3.45, 6.71, 9.08, 7.95, 6.4, 4.24, 5.31, 7.97, 8.43, 6.21, 6.26, 6.21, 6.98, 7.45, 7.89, 8.19, 8.63, 8.8, 8.01, 7.56, 7.11, 7.12, 7.56, 8.01, 7.56, 7.45, 7.56, 8.46, 8.94, 8.94, 8.94, 8.94, 8.46, 7.11, 5.77, 3.97, 3.39, 2.86, 2.5, 2.5, 1.9, 1.58, 1.24, 1.24, 1.86, 2.17, 2.12, 1.24, 0.61, 1.16, 1.16, 1.33, 2.23, 3.14, 3.45, 3.14, 9.82, 9.82, 10.13, 10.43, 10.45, 10.45, 10.45, 10.76, 10.45, 10.45, 7.96, 4.63, 4.5, 5.82, 8.15, 6.64, 6.07, 7.03, 6.35, 6.08, 5.43, 5.72, 6.08, 3.64, 0.72, 0.0, -1.05, -2.13, -4.18, -4.18, -3.3, 0.0, 1.04, 4.54, 5.68, 5.02, 3.68, 3.21, 2.76, 1.99, 2.32, 3.17, 4.36, 4.54, 3.2, 1.74, 2.21, 3.2, 4.66, 7.74, 6.07, 6.21, 6.66, 7.11, 7.56, 7.89, 7.89, 7.89, 9.26, 8.9, 8.46, 8.01, 8.01, 8.46, 8.46, 7.56, 7.15, 7.15, 7.15, 7.6, 8.49, 8.94, 9.39, 9.36, 8.46, 7.15, 6.26, 4.92, 3.58, 3.32, 2.53, 2.53, 1.88, 1.24, 1.26, 1.2, 1.34, 1.7, 1.24, 1.2, 0.53, 0.53, 0.61, 1.16, 2.23, 3.14, 3.6, 3.14, 9.82, 9.82, 9.82, 10.13, 10.43, 10.45, 10.45, 10.76, 10.76, 9.21, 6.33, 3.94, 3.45, 4.92, 6.83, 6.64, 6.73, 7.41, 6.7, 5.46, 4.98, 6.4, 8.82, 8.14, 5.05, 2.21, 0.0, -0.87, -4.4, -4.12, -1.03, 0.0, 1.11, 3.42, 3.78, 3.85, 2.26, 0.85, 0.8, 0.71, 1.4, 1.6, 2.95, 1.49, 0.45, 0.0, 0.0, 2.23, 2.8, 4.8, 7.74, 6.07, 6.55, 7.45, 7.89, 7.89, 8.36, 8.8, 9.36, 8.91, 8.9, 8.9, 8.9, 8.46, 7.6, 7.56, 7.45, 7.56, 7.56, 8.46, 8.94, 9.39, 10.28, 10.28, 9.39, 8.49, 7.15, 6.26, 4.92, 3.53, 2.15, 1.88, 1.24, 0.63, 0.0, -0.0, 0.6, 0.99, 1.24, 0.54, 0.54, 0.65, 0.53, 1.2, 2.53, 3.45, 3.45, 3.14, 9.5, 9.82, 9.82, 10.13, 10.13, 10.45, 10.45, 10.76, 10.45, 8.87, 5.92, 5.23, 5.2, 5.8, 5.67, 6.56, 6.56, 7.38, 6.7, 5.45, 4.4, 5.45, 7.9, 8.58, 6.18, 3.58, 2.21, 0.65, 0.0, -1.13, 0.0, 0.0, 0.0, 0.0, 0.0, 0.0, 0.0, 0.0, 0.0, 0.45, 1.2, 1.86, 2.0, 1.79, 1.2, 1.2, 0.89, 1.26, 2.23, 3.2, 4.4, 5.34, 6.28, 7.21, 7.89, 8.33, 8.36, 9.26, 9.26, 8.82, 8.82, 8.9, 9.77, 6.71, 6.7, 6.0, 7.06, 8.24, 7.01, 7.56, 8.05, 9.39, 10.26, 10.26, 9.81, 8.91, 8.01, 7.56, 6.67, 4.87, 2.4, 0.0, 0.0, 0.0, -0.0, -0.0, -0.0, 0.6, 0.6, -0.0, -0.0, -0.0, -0.0, 0.71, 1.9, 3.07, 3.07, 2.53, 9.5, 9.8, 9.82, 9.82, 10.13, 10.45, 10.45, 10.76, 10.13, 7.96, 6.31, 6.29, 7.57, 7.55, 6.73, 6.2, 7.45, 7.06, 6.4, 5.73, 5.35, 5.79, 6.6, 6.79, 6.7, 4.19, 2.53, 2.86, 2.15, 0.7, 0.0, 0.45, -0.6, -1.2, -1.26, -0.76, 0.0, 0.0, 0.45, 1.2, 1.49, 1.6, 1.34, 3.72, 4.09, 2.12, 2.24, 2.12, 1.86, 2.23, 3.83, 5.2, 5.75, 6.28, 6.79, 7.71, 8.63, 9.06, 9.11, 9.06, 8.19, 7.56, 6.21, 5.43, 5.69, 6.44, 6.44, 6.4, 6.07, 6.26, 7.56, 9.28, 10.18, 10.18, 9.74, 8.84, 8.24, 7.28, 6.79, 6.07, 2.8, 0.0, -1.49, -0.89, -0.32, -0.0, 0.45, -0.0, -0.0, -0.0, -0.0, -0.0, -0.0, 0.6, 1.86, 2.15, 2.5, 2.53, 9.5, 9.5, 9.82, 9.82, 10.13, 10.13, 10.45, 10.45, 9.82, 7.96, 6.7, 6.92, 8.22, 9.21, 8.87, 8.24, 7.33, 6.92, 7.1, 6.4, 5.8, 5.64, 5.44, 6.21, 5.43, 5.46, 3.22, 0.8, 0.45, 0.45, 0.45, -0.0, -0.57, -1.26, -0.32, 0.0, 0.0, 0.45, 0.63, 1.7, 1.86, 1.86, 1.2, 2.32, 3.2, 2.21, 2.23, 2.23, 2.23, 2.21, 3.16, 3.84, 4.84, 5.05, 5.43, 6.7, 7.28, 8.14, 7.89, 6.94, 5.31, 3.51, 4.11, 3.11, 3.2, 3.79, 3.79, 4.81, 5.59, 6.26, 7.48, 8.48, 9.4, 9.11, 8.19, 8.14, 7.71, 7.21, 7.47, 7.06, 3.45, 1.26, -0.6, -1.2, -0.8, -0.45, -0.45, -0.45, -0.32, -0.63, -0.63, -0.0, -0.0, -0.0, 0.95, 1.86, 1.9, 1.88, 9.5, 9.5, 9.82, 9.82, 9.82, 10.13, 10.45, 10.45, 9.5, 7.96, 7.19, 7.57, 8.2, 9.5, 10.43, 10.69, 10.01, 8.5, 7.33, 6.96, 6.71, 6.69, 7.23, 6.44, 5.78, 5.37, 3.2, 0.45, -1.49, -1.27, -0.89, -0.63, -0.95, -0.95, -0.0, -0.0, -0.0, 0.6, 1.2, 1.34, 1.7, 1.34, 0.6, 0.7, 0.88, 1.66, 1.8, 2.15, 2.41, 2.41, 2.79, 2.98, 3.64, 3.64, 3.79, 4.29, 4.34, 5.81, 4.8, 1.6, -0.0, 1.66, 2.29, 1.52, 0.83, 0.78, 1.47, 3.43, 4.8, 5.75, 6.26, 6.79, 7.35, 7.6, 7.47, 7.35, 6.94, 6.94, 6.8, 6.13, 4.73, 2.68, 1.7, 0.0, -1.86, -1.2, -1.2, -1.34, -0.89, -0.89, -0.63, -1.2, -0.95, -0.0, -0.0, 0.95, 1.26, 1.58, 9.21, 9.21, 9.52, 9.82, 9.82, 10.13, 10.43, 10.13, 9.21, 8.23, 7.32, 8.22, 8.86, 9.22, 10.45, 11.63, 11.52, 10.23, 8.78, 7.86, 7.86, 8.38, 9.21, 9.77, 10.21, 9.7, 6.84, 3.39, 0.0, -1.7, -1.34, -0.63, -1.9, -0.95, -0.6, -0.0, -0.0, 0.6, 1.34, 1.34, 1.7, 1.6, 0.71, 0.0, 1.25, 2.32, 1.9, 2.21, 2.53, 2.21, 2.53, 2.95, 2.68, 1.49, 0.8, 1.26, 1.26, 3.39, 1.58, -0.63, -1.66, -0.0, 1.05, -0.0, -0.0, -0.0, -0.0, 2.15, 5.81, 3.32, 5.59, 5.36, 5.43, 5.77, 6.44, 7.07, 6.07, 5.82, 4.8, 3.58, 3.51, 4.4, 4.93, 4.24, -0.95, -1.49, -1.86, -1.7, -1.7, -1.34, -1.79, -1.7, -1.2, -0.63, 0.45, 0.45, 0.63, 1.2, 9.21, 9.21, 9.21, 9.82, 9.82, 9.82, 10.43, 9.82, 9.21, 8.23, 7.96, 8.22, 8.86, 9.49, 10.47, 11.67, 12.22, 11.58, 10.3, 9.02, 8.73, 9.3, 10.41, 11.75, 12.11, 11.92, 10.97, 8.3, 3.6, 0.45, 0.45, -0.32, -1.58, -1.9, -1.4, -0.0, -0.0, 1.2, 3.13, 1.2, 1.26, 3.72, 1.41, 0.0, -1.9, -0.0, -0.0, 3.13, 4.02, 1.79, 2.54, 2.6, 1.79, 0.95, 0.63, 0.89, 0.71, 2.98, 2.15, -0.0, -0.76, -0.0, 0.85, 0.71, 0.57, -0.0, -0.0, 0.95, 2.4, 2.6, 4.15, 4.92, 5.34, 4.65, 4.65, 4.74, 3.2, 3.58, 3.95, 4.8, 5.43, 6.4, 7.28, 6.55, 2.63, -0.89, -1.7, -1.86, -2.12, -2.24, -2.24, -2.24, -1.34, -0.89, 0.0, 0.0, 0.45, 0.45, 9.21, 9.21, 9.21, 9.52, 9.82, 9.82, 10.13, 9.82, 9.21, 8.23, 8.22, 8.86, 9.5, 9.84, 10.47, 11.38, 11.99, 12.27, 11.92, 10.88, 10.23, 10.51, 11.07, 12.16, 12.56, 13.02, 12.41, 11.39, 7.89, 4.19, 2.17, 1.34, 0.45, -0.0, -0.0, -0.0, -0.0, 0.6, 2.68, 3.2, 1.58, 1.86, 3.2, -0.0, -1.27, -1.19, -0.0, -0.0, 1.4, 2.21, 3.58, 1.7, 1.86, 1.58, 1.58, 1.79, 2.6, 3.22, 2.24, 1.49, 1.49, 2.6, 3.48, 4.66, 1.79, 1.34, 1.34, 0.89, 1.26, 2.0, 4.02, 4.47, 1.9, 0.65, 0.71, 1.34, 2.21, 4.81, 6.44, 6.44, 7.03, 6.94, 6.79, 4.92, 1.79, 0.45, -0.89, -1.2, -1.79, -2.24, -2.68, -1.79, -1.2, -0.45, 0.45, 0.0, 0.0, 0.0, 9.21, 9.21, 9.21, 9.21, 9.82, 9.82, 10.13, 9.82, 9.21, 8.87, 8.59, 8.86, 9.5, 9.84, 10.47, 11.38, 11.67, 12.27, 12.27, 11.63, 11.28, 10.88, 11.72, 12.42, 12.62, 13.02, 13.41, 13.1, 11.86, 10.04, 7.26, 5.09, 2.49, 2.68, -0.0, -0.0, -0.0, -0.0, 0.89, 2.53, 2.21, 0.89, 2.21, 0.57, -0.0, -0.0, -0.0, -0.0, 1.27, 3.16, 3.16, 2.73, 3.79, 3.79, 4.8, 5.81, 7.06, 7.15, 5.75, 4.75, 4.75, 4.74, 5.81, 6.14, 6.26, 2.68, 2.24, 0.89, 0.45, 1.34, 1.6, 0.63, 0.45, 0.45, 0.63, 1.4, 4.65, 7.35, 8.06, 7.44, 7.03, 6.94, 5.86, 3.13, 0.4, -1.34, -0.89, -1.26, -2.12, -2.24, -2.24, -1.7, -1.34, -0.63, -0.63, -0.4, -0.0, -0.0, 9.5, 9.21, 9.21, 9.21, 9.82, 9.82, 9.82, 9.82, 9.21, 8.87, 8.86, 9.5, 10.13, 10.13, 10.76, 11.06, 11.67, 12.27, 12.22, 11.92, 11.8, 12.0, 11.99, 11.6, 12.51, 13.1, 13.67, 14.11, 14.11, 13.54, 11.87, 9.42, 5.89, 2.63, 1.2, 1.26, 0.45, 0.63, 0.8, 0.95, 0.0, -0.0, -0.0, -0.0, 1.27, -0.0, 1.41, 1.41, 2.73, 3.48, 3.79, 4.11, 3.49, 4.11, 4.65, 5.81, 6.79, 6.8, 5.69, 5.69, 5.93, 6.4, 6.79, 6.61, 6.71, 3.58, 2.68, 2.12, 0.85, 1.27, 1.9, 2.24, 3.51, 4.66, 3.83, 2.84, 5.09, 7.67, 8.63, 7.6, 6.54, 6.28, 5.64, 1.34, -0.0, -0.0, -0.0, -0.65, -0.65, -0.54, -0.6, -0.6, -0.57, -0.0, -0.0, -0.0, -0.0, -0.0, 9.5, 9.5, 9.21, 9.21, 9.82, 9.82, 9.82, 9.82, 9.21, 8.87, 8.86, 9.5, 9.84, 9.84, 10.13, 10.98, 11.06, 11.67, 11.58, 11.72, 12.54, 12.82, 11.99, 11.44, 11.2, 13.77, 11.87, 14.49, 14.68, 13.09, 12.83, 10.68, 6.56, 2.6, 0.89, 0.89, 1.7, 2.15, 2.6, 1.6, 0.63, -0.0, -0.0, -0.0, 1.27, 1.41, 2.48, 3.16, 4.09, 4.09, 4.11, 3.76, 3.76, 3.76, 3.76, 5.59, 5.59, 5.93, 6.7, 7.2, 7.21, 7.06, 7.06, 4.92, 4.47, 3.51, 3.51, 3.74, 4.46, 4.0, 5.36, 8.8, 11.66, 12.14, 10.02, 6.21, 4.92, 7.15, 8.49, 8.46, 5.81, 5.81, 4.02, 3.07, 2.86, 2.51, 1.8, 1.41, -0.0, -0.0, -0.0, -0.0, -0.0, -0.0, -0.0, -0.0, 0.59, 0.59, 9.5, 9.5, 9.21, 9.21, 9.5, 9.82, 9.82, 9.82, 9.21, 8.87, 9.21, 9.5, 9.84, 9.84, 10.13, 10.45, 11.06, 10.45, 9.31, 10.24, 13.14, 13.58, 12.45, 11.52, 10.86, 11.87, 12.78, 12.16, 12.7, 13.23, 12.56, 7.9, 2.79, 1.27, 1.34, 1.79, 2.17, 2.97, 3.54, 3.58, 3.39, 2.15, 1.24, 1.2, 1.16, 3.16, 3.72, 4.09, 4.09, 4.09, 2.98, 2.6, 2.6, 2.8, 2.15, 3.16, 5.69, 4.46, 5.43, 7.21, 7.06, 6.71, 6.71, 7.15, 4.41, 3.07, 3.04, 3.13, 4.47, 6.51, 8.4, 11.45, 14.7, 15.91, 14.29, 11.06, 8.14, 7.69, 7.89, 6.98, 6.66, 5.81, 5.36, 4.24, 3.83, 3.48, 2.73, 2.11, 1.27, 0.66, 0.66, 1.27, 0.66, -0.0, -0.0, -0.0, 0.59, 0.59, 9.5, 9.5, 9.21, 9.21, 9.5, 9.82, 9.82, 9.82, 9.5, 9.21, 9.21, 9.55, 9.84, 10.47, 10.47, 11.08, 11.08, 10.13, 8.22, 9.49, 12.72, 13.19, 13.19, 11.67, 11.63, 11.96, 11.92, 11.87, 12.09, 12.65, 9.5, 2.98, 0.63, 1.34, 1.79, 2.24, 2.68, 3.13, 3.58, 4.3, 4.6, 3.72, 2.79, 2.21, 1.61, 3.16, 3.72, 4.66, 4.66, 3.48, 1.3, 1.41, 1.41, 2.6, 3.22, 2.41, 3.72, 4.43, 6.8, 6.71, 6.71, 6.71, 6.61, 7.06, 4.41, 2.68, 2.12, 2.21, 2.98, 4.95, 6.95, 9.92, 12.56, 13.33, 12.87, 11.62, 8.85, 8.12, 6.95, 6.08, 6.28, 5.77, 5.36, 4.73, 4.84, 2.79, 2.2, 2.66, 2.88, 2.0, 1.8, 1.8, 1.8, 0.59, -0.0, -0.0, -0.0, -0.0, 9.5, 9.5, 9.21, 9.21, 9.5, 9.82, 9.82, 9.82, 9.5, 9.21, 9.5, 9.84, 10.13, 10.47, 10.77, 11.39, 11.39, 10.45, 9.49, 10.13, 11.72, 12.33, 12.02, 11.72, 12.62, 13.19, 13.3, 12.65, 12.56, 11.72, 6.44, 2.17, 0.89, 1.79, 1.79, 2.24, 2.24, 2.68, 2.68, 3.09, 3.82, 3.6, 2.79, 2.21, 1.84, 1.61, 3.72, 4.24, 3.82, 1.41, -0.0, 1.3, 1.3, 2.6, 2.8, 3.45, 3.22, 3.79, 5.69, 5.7, 3.58, 3.95, 4.66, 5.16, 3.95, 1.7, 0.79, -0.0, 0.73, 1.99, 2.32, 5.15, 8.05, 7.11, 5.69, 6.87, 7.67, 7.19, 6.29, 5.52, 5.43, 4.0, 4.02, 3.45, 3.48, 2.73, 2.2, 2.0, 3.43, 3.43, 2.48, 2.51, 2.79, 1.8, 0.59, -0.0, -0.0, -0.0, 9.21, 9.21, 9.21, 9.21, 9.5, 9.5, 9.82, 9.82, 9.5, 9.21, 9.5, 9.84, 10.47, 10.77, 10.77, 11.1, 11.39, 10.77, 10.47, 11.39, 12.6, 12.27, 11.38, 11.08, 12.01, 13.19, 14.23, 14.03, 13.36, 11.5, 7.08, 3.54, 2.68, 2.24, 2.24, 2.24, 2.68, 2.68, 2.68, 3.07, 3.09, 3.39, 3.2, 2.79, 2.23, 1.84, 3.72, 3.82, 2.84, -0.0, -0.0, 1.3, 1.3, 2.6, 2.6, 2.32, 1.41, 2.29, 4.19, 4.46, 2.68, 3.74, 4.4, 3.74, 1.2, 0.79, 0.82, 0.73, 0.65, 0.71, -0.0, 1.34, 1.79, 1.34, 1.4, 2.2, 4.87, 6.44, 5.68, 4.8, 3.6, 2.84, 2.68, 2.86, 2.51, 2.3, 2.79, 2.51, 3.16, 3.79, 3.15, 3.72, 2.51, 2.51, 1.27, 0.66, 0.66, 0.66, 9.21, 9.21, 9.21, 9.21, 9.5, 9.5, 9.82, 9.82, 9.5, 9.21, 9.5, 9.84, 10.47, 10.47, 11.1, 11.4, 11.72, 11.39, 10.77, 11.7, 12.27, 12.51, 11.58, 10.99, 11.36, 12.56, 13.73, 14.51, 13.9, 12.28, 9.3, 6.84, 5.26, 4.44, 3.99, 3.98, 4.02, 4.02, 4.02, 3.58, 3.54, 3.87, 3.87, 3.6, 2.79, 2.21, 4.24, 4.24, 2.48, 1.3, 1.3, 1.3, 1.3, 1.3, 1.3, 1.3, 0.71, 0.71, 1.74, 4.29, 4.15, 2.54, 2.23, 0.89, -0.0, -0.0, 0.78, 2.4, 1.66, 1.24, 0.89, 2.84, 3.58, 2.8, 4.09, 2.68, 2.16, 4.4, 5.2, 4.4, 2.72, 2.21, 2.24, 1.9, 1.88, 1.84, 2.53, 2.84, 2.51, 3.48, 4.11, 3.15, 3.43, 3.07, 1.8, 1.27, 1.27, 1.27, 9.21, 9.21, 9.21, 9.21, 9.21, 9.21, 9.82, 9.82, 9.5, 9.5, 9.84, 10.13, 10.47, 10.76, 11.4, 11.4, 11.4, 11.1, 11.08, 11.7, 12.27, 12.51, 12.09, 11.52, 11.52, 12.16, 13.09, 14.13, 14.03, 12.95, 11.41, 9.51, 8.06, 7.4, 6.61, 6.23, 5.79, 5.36, 5.36, 4.92, 4.92, 4.89, 4.77, 4.34, 3.7, 3.32, 2.91, 3.07, 2.84, 1.84, 1.6, 2.73, 1.55, 1.19, 1.3, 1.3, 1.41, -0.0, 0.95, 2.6, 4.82, 4.47, 1.79, -0.0, -0.78, -0.0, 0.78, 1.63, 1.6, 1.6, 2.23, 4.84, 7.52, 9.26, 9.49, 6.07, 2.12, 0.71, 1.23, 0.76, 1.16, 1.86, 1.2, 0.54, 0.65, 1.16, 2.15, 1.84, 1.84, 2.51, 3.48, 4.07, 3.15, 3.07, 2.73, 1.8, 1.8, 1.8, 8.87, 8.87, 8.87, 9.21, 9.21, 9.21, 9.21, 9.82, 9.5, 9.5, 9.84, 9.84, 10.47, 11.1, 11.4, 11.4, 11.4, 11.1, 11.39, 11.08, 12.27, 12.56, 12.16, 11.87, 11.8, 12.37, 12.65, 13.48, 13.2, 12.7, 11.75, 10.91, 10.0, 8.96, 8.64, 8.33, 7.52, 7.13, 6.71, 6.26, 5.81, 5.78, 5.34, 5.24, 4.77, 4.3, 3.87, 3.6, 3.14, 2.53, 1.88, 1.2, 1.41, -0.0, 1.3, 1.3, 1.55, 1.27, 1.4, 1.34, 3.13, 5.7, 4.15, -0.0, -0.0, -0.0, 0.82, 0.76, 1.6, 1.6, 2.24, 4.77, 7.55, 9.83, 10.25, 9.27, 6.25, 1.34, -0.63, -0.63, 0.0, 0.0, -0.0, -0.57, -0.0, 0.61, 1.33, 1.84, 1.84, 2.23, 2.84, 4.43, 4.11, 3.15, 2.79, 2.51, 2.51, 2.51, 8.87, 8.87, 8.87, 9.21, 9.21, 9.21, 9.21, 9.5, 9.5, 9.5, 9.84, 10.13, 10.47, 11.1, 11.1, 11.1, 11.39, 11.08, 11.08, 11.38, 11.99, 12.56, 12.56, 12.51, 11.87, 12.37, 12.37, 12.82, 12.27, 12.03, 11.36, 10.16, 9.48, 9.51, 9.7, 9.43, 9.57, 9.23, 8.42, 8.03, 7.15, 6.71, 6.23, 5.7, 5.26, 5.24, 4.77, 4.3, 3.82, 2.91, 2.4, 1.24, -0.0, -0.0, -0.0, -0.0, 1.41, -0.0, -0.0, 0.63, 1.79, 4.47, 3.9, 1.55, -0.0, -0.0, 0.81, 1.74, 2.0, 1.79, 3.13, 4.24, 6.28, 7.11, 7.45, 8.0, 7.89, 3.13, 0.0, -0.89, -0.89, -1.2, -1.79, -1.86, -1.24, -0.0, 0.61, 1.33, 1.84, 2.53, 2.53, 2.79, 3.48, 3.48, 3.48, 3.16, 2.84, 2.84, 8.87, 8.87, 8.87, 8.87, 9.21, 9.21, 9.21, 9.21, 9.21, 9.5, 9.82, 10.13, 10.47, 10.76, 11.1, 11.08, 11.08, 11.08, 11.08, 11.38, 11.99, 12.56, 12.56, 12.56, 12.51, 12.09, 12.37, 11.9, 11.62, 10.96, 10.3, 9.88, 9.2, 8.91, 9.21, 9.21, 8.96, 9.23, 8.86, 8.03, 7.6, 6.71, 6.68, 6.16, 6.16, 5.7, 5.34, 4.89, 4.44, 3.58, 2.24, 1.6, -0.0, -0.0, -0.61, -0.0, -0.0, -0.0, -0.0, -0.0, 1.34, 3.58, 3.51, 1.66, 0.82, 1.18, 2.68, 2.54, 2.54, 2.54, 3.58, 4.87, 6.07, 5.59, 4.41, 5.77, 7.11, 3.07, 0.89, 0.0, -0.45, -1.79, -2.68, -2.6, -2.23, -0.71, -0.0, 0.61, 1.88, 2.5, 2.5, 3.07, 3.14, 3.72, 3.16, 3.49, 3.14, 3.14, 8.87, 8.87, 8.87, 8.87, 8.87, 9.21, 9.21, 9.5, 9.5, 9.5, 9.82, 9.84, 10.77, 10.76, 11.39, 11.08, 11.08, 10.76, 11.06, 11.38, 11.67, 12.56, 12.56, 12.56, 12.22, 12.51, 12.09, 11.72, 11.62, 11.75, 10.68, 9.48, 8.8, 8.51, 8.72, 8.72, 8.48, 8.64, 8.33, 7.97, 7.58, 7.15, 6.71, 6.71, 6.21, 5.57, 5.33, 3.98, 2.91, 3.53, 2.17, 1.34, 0.32, -0.0, -0.54, -0.61, -0.0, -0.0, -0.0, -0.0, 1.34, 2.68, 2.54, 1.49, 1.55, 2.29, 3.11, 2.53, 1.6, 2.23, 3.47, 5.31, 7.11, 6.79, 6.7, 7.68, 6.79, 2.86, 1.2, 0.45, 0.0, -0.63, -1.34, -1.0, -1.2, -1.4, -0.71, -0.0, 1.58, 2.4, 2.91, 2.91, 3.32, 3.6, 3.35, 3.72, 3.35, 3.35, 8.87, 8.87, 8.87, 8.59, 8.59, 9.19, 9.19, 9.19, 9.5, 9.5, 9.8, 10.13, 10.47, 10.77, 11.39, 11.08, 11.06, 10.76, 10.76, 11.06, 11.67, 11.96, 11.96, 11.92, 11.92, 11.87, 11.87, 11.72, 11.24, 11.22, 10.68, 10.4, 9.71, 9.01, 8.6, 8.72, 8.48, 8.21, 7.87, 7.87, 7.51, 7.51, 6.68, 5.78, 4.92, 5.31, 5.36, 1.79, 0.0, 0.0, 0.0, 0.0, 0.45, -0.0, -0.0, -0.65, -0.53, -0.0, -0.0, 0.85, 1.2, 2.24, 2.21, 1.49, 2.41, 1.8, 0.73, 0.87, 1.2, 1.58, 2.84, 4.15, 7.15, 8.94, 9.33, 9.27, 8.67, 5.69, 3.51, 3.58, 3.13, 2.63, 2.17, 2.84, 2.6, 0.61, -0.0, 0.6, 1.7, 2.17, 2.17, 2.6, 3.07, 3.32, 3.6, 3.6, 3.6, 3.6, 8.87, 8.87, 8.59, 8.59, 8.87, 8.87, 9.19, 9.19, 9.19, 9.19, 9.8, 10.12, 10.45, 10.77, 11.39, 11.08, 11.06, 10.76, 10.76, 11.06, 11.67, 11.63, 11.92, 11.58, 11.87, 11.52, 11.23, 11.16, 10.83, 11.08, 11.08, 10.91, 10.4, 10.21, 9.51, 9.21, 8.91, 8.21, 7.87, 7.97, 7.97, 7.52, 7.07, 6.23, 5.24, 6.02, 5.31, 2.24, 0.0, 0.0, 0.0, 0.63, 1.2, 0.89, 0.6, -0.0, -0.0, -0.0, -0.0, 0.85, 1.9, 2.23, 2.41, 3.2, 2.8, 2.0, -0.0, -0.0, 1.2, 2.12, 2.23, 1.79, 4.38, 9.11, 12.07, 11.66, 10.15, 8.63, 6.98, 8.49, 8.49, 7.15, 5.57, 6.03, 6.7, 4.84, 2.44, 1.49, 1.79, 2.24, 2.24, 2.24, 3.13, 3.53, 3.39, 3.82, 3.87, 3.87, 8.59, 8.59, 8.59, 8.87, 8.87, 8.87, 8.58, 9.19, 9.48, 9.19, 9.8, 10.12, 9.82, 10.47, 11.08, 11.39, 11.08, 10.76, 10.45, 11.03, 11.36, 11.63, 11.92, 11.58, 11.28, 11.23, 10.94, 9.94, 10.29, 10.02, 10.68, 11.08, 10.91, 10.62, 10.0, 9.7, 8.96, 8.64, 8.33, 8.42, 8.42, 8.42, 7.97, 7.07, 6.61, 6.47, 6.16, 4.92, 3.58, 2.68, 2.24, 2.68, 3.13, 3.58, 3.39, 1.9, 1.2, 0.54, 0.54, 0.54, 1.74, 2.84, 3.6, 3.04, 2.68, 2.24, 1.34, 0.45, 1.2, 2.68, 2.24, 1.58, 1.58, 6.17, 12.87, 13.84, 10.25, 6.94, 6.79, 8.05, 10.26, 10.37, 9.86, 7.6, 8.1, 7.4, 4.66, 2.49, 2.17, 2.24, 2.24, 2.24, 2.68, 3.13, 3.53, 3.97, 3.97, 3.97, 8.59, 8.59, 8.87, 8.87, 8.58, 8.58, 8.87, 9.17, 9.17, 9.48, 9.8, 9.8, 9.82, 10.13, 11.08, 11.39, 11.08, 10.76, 10.45, 11.03, 11.03, 11.03, 11.33, 11.28, 10.94, 10.88, 10.23, 9.94, 9.3, 10.29, 9.76, 10.02, 9.88, 9.71, 9.51, 9.21, 9.11, 8.79, 8.79, 8.87, 8.87, 8.87, 8.42, 7.97, 7.07, 6.61, 6.61, 6.68, 6.26, 5.81, 5.36, 4.92, 4.92, 4.89, 4.34, 3.6, 3.07, 1.9, 1.24, 0.65, 0.65, 2.98, 4.66, 2.68, 2.24, 2.24, 2.24, 1.79, 2.24, 2.68, 3.45, 2.15, 1.86, 4.41, 11.98, 14.73, 10.7, 5.36, 4.02, 7.12, 9.62, 10.84, 11.09, 11.28, 8.24, 7.87, 5.72, 3.54, 2.68, 2.68, 2.24, 2.24, 2.24, 3.13, 3.58, 3.53, 3.98, 3.98, 8.59, 8.59, 8.87, 8.58, 8.58, 8.87, 8.87, 9.17, 9.17, 9.48, 9.8, 9.8, 10.12, 10.13, 10.76, 11.08, 11.08, 10.76, 10.45, 11.03, 11.03, 11.33, 10.99, 11.28, 10.94, 10.65, 10.01, 9.94, 9.94, 10.13, 9.48, 8.82, 8.68, 8.68, 9.01, 8.72, 8.48, 8.64, 8.79, 9.23, 9.32, 8.87, 8.86, 8.47, 7.58, 7.07, 7.06, 7.06, 7.06, 6.68, 6.71, 6.26, 6.26, 5.81, 4.89, 4.3, 3.39, 2.91, 1.49, 0.65, 1.8, 2.84, 4.24, 3.82, 1.79, 1.79, 1.79, 1.79, 2.24, 2.68, 3.2, 3.72, 3.04, 7.21, 11.87, 14.67, 13.84, 10.32, 9.6, 10.37, 11.42, 11.54, 11.6, 11.15, 10.7, 7.13, 5.79, 4.02, 3.13, 2.63, 2.6, 2.12, 2.12, 2.6, 3.58, 4.02, 4.02, 4.02, 8.59, 8.59, 8.87, 8.58, 8.58, 8.87, 9.17, 9.48, 9.17, 9.48, 10.09, 9.8, 10.12, 10.4, 10.43, 11.06, 11.06, 10.76, 10.45, 11.03, 11.03, 11.33, 10.99, 10.94, 10.65, 10.59, 10.01, 9.94, 9.94, 10.13, 9.35, 8.68, 8.51, 8.0, 8.0, 8.22, 8.0, 8.48, 8.64, 8.67, 8.79, 8.79, 8.86, 8.47, 8.03, 7.51, 7.07, 6.94, 6.94, 7.06, 6.61, 6.68, 6.26, 5.81, 5.36, 4.44, 3.98, 2.91, 1.9, 1.24, 0.71, 1.6, 3.6, 3.82, 4.02, 4.02, 1.79, 2.24, 2.24, 2.24, 2.63, 2.6, 5.73, 9.39, 11.96, 13.39, 14.11, 13.99, 13.75, 13.96, 13.39, 12.07, 10.7, 9.36, 9.39, 6.26, 5.81, 4.02, 2.97, 2.91, 2.91, 2.4, 1.86, 2.6, 3.07, 3.53, 4.02, 4.02, 8.87, 8.87, 8.87, 8.58, 8.87, 8.56, 8.58, 9.19, 9.17, 9.48, 9.77, 9.8, 10.12, 10.4, 10.4, 10.43, 11.06, 10.76, 10.45, 11.03, 11.03, 10.99, 10.69, 10.36, 10.65, 10.23, 9.66, 9.94, 9.86, 9.76, 9.35, 9.2, 9.01, 8.51, 8.22, 7.81, 7.81, 7.58, 8.0, 8.17, 8.21, 8.33, 8.42, 8.42, 7.98, 7.97, 7.87, 7.4, 6.94, 6.94, 6.94, 6.61, 6.23, 5.81, 5.36, 4.47, 4.02, 3.07, 2.23, 1.58, 1.26, 1.26, 3.58, 2.24, 3.47, 4.77, 2.12, 2.24, 2.24, 2.24, 2.24, 2.68, 5.26, 10.02, 12.49, 11.62, 11.6, 12.74, 14.11, 14.69, 13.86, 11.15, 8.46, 6.67, 5.81, 5.81, 4.47, 3.98, 3.2, 3.07, 2.68, 2.5, 1.9, 2.23, 2.91, 3.82, 3.98, 3.98, 8.87, 8.87, 8.58, 8.58, 8.87, 8.56, 8.87, 9.19, 9.17, 9.48, 9.77, 9.8, 10.12, 10.4, 10.4, 10.43, 10.76, 10.45, 10.75, 10.75, 10.43, 10.72, 10.69, 10.36, 10.3, 10.01, 9.94, 9.59, 9.5, 9.21, 9.1, 8.96, 8.8, 8.51, 8.3, 8.0, 7.51, 7.51, 7.51, 7.74, 7.74, 7.74, 7.4, 8.46, 7.58, 8.3, 8.17, 7.69, 7.26, 6.79, 6.51, 6.47, 6.16, 5.78, 5.36, 4.47, 4.02, 3.07, 1.86, 1.26, 1.6, 1.79, 3.58, 1.79, 3.13, 5.36, 2.24, 2.24, 2.24, 2.24, 2.24, 2.24, 3.04, 9.21, 12.3, 12.07, 9.36, 10.16, 13.21, 14.6, 13.34, 10.73, 7.6, 5.81, 4.47, 4.92, 4.92, 3.98, 3.39, 3.07, 2.68, 2.15, 2.5, 1.9, 2.5, 3.45, 3.6, 4.24, 8.58, 8.58, 8.58, 8.58, 8.87, 8.56, 8.87, 9.48, 9.17, 9.48, 9.77, 9.8, 9.8, 10.12, 10.4, 10.43, 10.75, 10.75, 10.75, 10.43, 10.72, 10.4, 10.36, 10.06, 9.72, 10.01, 9.94, 9.86, 9.3, 9.21, 9.1, 8.96, 9.2, 9.01, 8.72, 8.48, 8.0, 8.0, 7.74, 7.74, 7.74, 7.69, 6.79, 7.42, 7.52, 8.33, 8.0, 7.31, 7.01, 6.6, 6.3, 6.47, 6.04, 5.7, 5.33, 4.92, 4.02, 3.13, 2.12, 1.7, 1.7, 1.79, 3.58, 3.58, 4.02, 4.92, 4.47, 1.79, 2.24, 2.24, 2.24, 1.79, 2.12, 7.45, 12.74, 12.77, 9.39, 8.91, 11.06, 12.72, 11.42, 9.81, 8.05, 6.71, 6.71, 6.26, 5.36, 4.02, 4.02, 3.58, 3.13, 3.13, 2.63, 2.4, 2.5, 3.07, 3.45, 3.6, 8.58, 8.58, 8.58, 8.58, 8.87, 8.56, 8.87, 9.17, 9.17, 9.48, 10.09, 9.8, 9.8, 10.12, 10.4, 10.43, 10.75, 10.75, 10.75, 10.72, 10.4, 10.4, 9.77, 10.06, 10.01, 9.66, 9.59, 9.86, 9.3, 9.21, 9.1, 8.96, 8.82, 8.68, 8.51, 8.72, 8.48, 8.48, 8.64, 8.17, 8.17, 7.69, 7.21, 6.1, 7.71, 8.64, 8.42, 6.8, 5.75, 6.0, 6.0, 5.81, 5.57, 5.24, 4.89, 4.88, 3.98, 2.24, 2.24, 1.7, 1.79, 1.79, 2.24, 4.47, 4.47, 4.77, 2.54, 2.12, 2.68, 2.24, 2.24, 2.24, 2.24, 3.13, 9.6, 11.75, 11.87, 9.39, 8.19, 7.73, 6.85, 7.12, 8.05, 7.57, 7.12, 7.01, 7.33, 6.36, 5.2, 6.36, 5.2, 4.73, 3.98, 3.58, 2.8, 2.8, 3.07, 3.45, 8.24, 8.24, 8.58, 8.58, 8.87, 8.87, 8.87, 9.17, 9.17, 9.48, 9.77, 9.8, 9.8, 10.12, 10.4, 10.43, 10.75, 10.75, 10.43, 10.72, 10.4, 10.09, 9.77, 9.46, 9.66, 9.66, 9.59, 9.5, 9.58, 9.21, 9.1, 8.96, 8.82, 8.68, 8.51, 8.51, 8.72, 8.48, 8.48, 8.64, 8.64, 8.17, 7.51, 6.8, 7.48, 8.95, 7.09, 5.08, 4.55, 4.93, 5.08, 5.31, 4.9, 4.6, 4.6, 4.34, 3.87, 2.24, 1.79, 1.79, 1.79, 1.79, 3.58, 4.47, 4.47, 4.92, 3.04, 5.2, 2.24, 2.24, 2.68, 2.24, 2.54, 2.54, 3.13, 8.37, 10.95, 10.93, 7.15, 4.47, 2.68, 3.58, 5.32, 7.76, 8.48, 8.06, 7.33, 7.28, 8.19, 8.24, 7.76, 6.58, 5.32, 6.26, 4.92, 3.51, 3.32, 3.32, 8.24, 8.24, 8.24, 8.58, 8.87, 8.87, 8.87, 9.17, 9.48, 9.48, 9.77, 9.8, 9.8, 10.12, 10.4, 10.43, 10.75, 10.75, 10.43, 10.72, 10.4, 9.77, 9.46, 9.13, 9.42, 9.37, 9.37, 9.3, 9.58, 9.21, 9.1, 9.1, 8.82, 8.68, 8.28, 8.51, 8.51, 8.72, 8.91, 8.48, 8.48, 8.48, 8.0, 7.81, 8.51, 8.51, 7.09, 5.4, 4.8, 4.4, 4.4, 4.27, 4.27, 4.27, 3.88, 4.11, 2.4, 2.17, 1.79, 2.24, 2.24, 2.12, 2.17, 4.47, 4.92, 4.92, 4.92, 4.92, 2.24, 2.17, 2.24, 2.24, 2.54, 2.4, 2.23, 3.47, 8.94, 11.52, 9.83, 7.47, 6.8, 6.8, 8.67, 10.18, 10.6, 10.02, 7.92, 7.48, 7.57, 8.01, 7.57, 7.12, 6.26, 6.71, 4.92, 3.53, 3.53, 3.53, 8.24, 8.24, 8.24, 8.24, 8.87, 8.87, 8.87, 9.17, 9.48, 9.48, 9.77, 9.8, 9.8, 10.12, 10.12, 10.43, 10.43, 10.43, 10.72, 10.4, 10.36, 9.77, 9.46, 9.13, 9.08, 9.37, 9.37, 9.3, 9.58, 9.21, 9.48, 9.1, 8.82, 8.68, 8.68, 8.51, 8.51, 8.51, 8.72, 8.72, 8.72, 8.72, 8.3, 8.3, 8.72, 8.72, 8.0, 7.21, 6.3, 5.4, 5.02, 4.4, 3.88, 3.88, 3.72, 3.35, 2.5, 2.4, 2.12, 2.24, 2.12, 2.17, 2.4, 4.47, 4.92, 4.92, 4.77, 4.77, 2.54, 2.12, 2.24, 2.17, 2.23, 2.5, 3.16, 3.84, 6.51, 10.25, 12.37, 11.99, 11.88, 12.01, 12.79, 12.5, 12.01, 10.96, 8.38, 6.67, 6.71, 7.15, 6.26, 6.26, 6.26, 8.05, 6.71, 4.47, 4.47, 4.47, 7.96, 7.96, 7.96, 7.96, 8.56, 8.87, 8.87, 8.87, 9.48, 9.48, 9.48, 9.8, 9.8, 10.12, 10.43, 10.43, 10.43, 10.72, 10.72, 10.69, 10.09, 9.72, 9.13, 9.08, 9.08, 9.02, 9.3, 9.3, 9.58, 9.21, 9.48, 9.1, 8.82, 8.68, 8.68, 8.91, 8.51, 8.51, 8.51, 8.51, 8.51, 8.51, 8.72, 8.72, 8.72, 8.3, 8.3, 8.0, 7.51, 6.79, 5.81, 5.51, 4.4, 4.27, 3.88, 3.35, 3.07, 2.91, 2.6, 2.17, 2.17, 2.6, 2.4, 2.91, 4.92, 4.92, 4.77, 2.54, 2.6, 2.24, 1.79, 1.86, 2.21, 2.86, 3.83, 3.74, 4.92, 8.46, 11.23, 11.83, 12.52, 13.65, 15.05, 14.62, 12.49, 11.28, 10.19, 7.15, 6.26, 5.36, 9.83, 5.77, 6.66, 7.56, 6.21, 4.43, 4.43, 4.43, 8.24, 8.24, 8.24, 8.24, 8.56, 8.87, 8.87, 8.87, 9.17, 9.48, 9.48, 9.48, 9.8, 10.12, 9.82, 10.4, 10.4, 10.4, 10.69, 10.69, 9.77, 9.46, 9.13, 8.82, 8.78, 9.02, 9.3, 9.3, 9.3, 9.21, 9.21, 9.1, 8.96, 8.82, 8.68, 8.91, 8.91, 8.51, 8.51, 8.51, 8.51, 8.51, 8.51, 8.51, 8.51, 8.72, 8.22, 8.22, 7.81, 7.51, 6.6, 6.3, 5.81, 5.31, 4.8, 3.88, 3.88, 3.6, 2.91, 2.6, 2.6, 2.4, 2.8, 2.91, 3.09, 4.92, 4.92, 2.68, 2.24, 1.79, 1.86, 2.23, 2.23, 2.8, 2.8, 3.13, 4.47, 7.56, 9.11, 9.2, 10.29, 13.14, 15.49, 15.04, 13.42, 12.01, 10.98, 9.83, 7.6, 9.33, 8.87, 5.77, 5.31, 6.21, 5.77, 4.43, 4.43, 4.43, 8.24, 8.24, 8.24, 8.24, 8.24, 8.56, 8.87, 8.58, 9.17, 9.48, 9.48, 9.19, 9.8, 10.12, 10.12, 10.4, 10.4, 10.69, 10.69, 10.69, 10.06, 9.13, 8.82, 8.5, 8.78, 8.78, 9.3, 9.3, 9.3, 9.21, 9.21, 9.1, 8.96, 8.82, 8.68, 8.68, 8.91, 8.91, 8.91, 8.51, 8.51, 8.51, 8.51, 8.51, 8.51, 8.0, 8.22, 7.81, 7.81, 7.31, 7.01, 6.6, 6.51, 6.3, 5.31, 4.9, 4.8, 4.11, 3.82, 2.91, 2.4, 2.4, 2.4, 2.8, 3.07, 4.47, 4.92, 4.77, 4.09, 1.86, 2.23, 1.86, 2.23, 2.6, 3.07, 3.13, 4.47, 6.71, 6.79, 6.07, 8.63, 12.39, 15.36, 14.93, 14.27, 13.21, 11.09, 9.39, 7.15, 4.87, 4.73, 4.87, 4.87, 4.87, 4.87, 4.43, 4.43, 4.43, 8.24, 8.24, 8.24, 7.95, 8.24, 8.56, 8.87, 8.58, 8.58, 9.19, 9.19, 9.19, 9.8, 10.12, 10.12, 10.4, 10.69, 10.69, 10.36, 10.65, 10.3, 9.42, 8.82, 8.78, 8.78, 8.78, 9.3, 9.3, 9.3, 9.21, 9.21, 9.1, 8.72, 8.82, 8.68, 8.68, 8.68, 8.91, 8.91, 8.91, 8.91, 8.51, 8.51, 8.51, 8.0, 8.0, 8.22, 7.81, 7.71, 7.31, 7.31, 7.01, 7.01, 6.6, 6.1, 5.6, 5.31, 4.8, 4.11, 3.39, 2.91, 2.8, 2.5, 2.15, 2.4, 4.24, 4.77, 4.77, 4.77, 3.74, 3.04, 2.12, 3.04, 3.04, 3.04, 3.13, 3.58, 4.47, 5.59, 5.43, 6.94, 10.01, 12.47, 13.8, 14.65, 13.92, 10.98, 8.05, 4.87, 4.73, 4.3, 4.73, 4.73, 5.16, 4.87, 4.43, 4.43, 4.43, 7.95, 7.95, 7.95, 7.95, 8.24, 8.24, 8.87, 8.58, 8.87, 9.19, 9.19, 9.5, 9.8, 9.8, 9.8, 10.36, 10.36, 10.36, 10.36, 10.65, 10.3, 9.08, 8.5, 8.78, 8.45, 8.73, 9.3, 9.3, 9.3, 9.21, 9.21, 9.1, 8.93, 8.82, 8.43, 8.68, 8.68, 8.68, 8.68, 8.91, 8.91, 8.91, 8.51, 8.51, 8.51, 8.0, 8.0, 7.81, 7.71, 7.31, 7.31, 6.8, 6.8, 6.8, 6.28, 6.0, 5.47, 4.9, 4.4, 3.6, 3.07, 2.68, 2.5, 2.21, 1.88, 2.53, 3.2, 3.95, 4.02, 4.38, 3.47, 3.04, 2.6, 3.04, 3.04, 3.13, 3.13, 3.58, 3.97, 4.93, 5.86, 7.35, 9.27, 11.9, 14.27, 14.61, 8.05, 4.43, 3.82, 4.24, 4.93, 4.52, 4.52, 5.34, 4.73, 4.3, 4.3, 4.3, 7.95, 7.95, 7.95, 7.95, 8.24, 8.24, 8.87, 8.58, 9.19, 9.19, 9.5, 9.5, 9.8, 9.8, 10.09, 10.09, 10.36, 10.36, 10.65, 10.3, 10.01, 9.08, 8.78, 8.45, 8.73, 8.73, 9.3, 9.3, 9.3, 9.21, 9.21, 8.84, 8.93, 8.82, 8.82, 8.68, 8.68, 8.68, 8.68, 8.68, 8.68, 8.91, 8.91, 8.51, 8.51, 8.4, 8.0, 8.0, 7.48, 7.71, 7.31, 7.2, 6.8, 6.67, 6.28, 5.75, 5.47, 5.08, 4.55, 3.72, 3.14, 2.79, 2.53, 2.53, 2.23, 2.68, 2.53, 2.97, 3.04, 3.04, 3.04, 3.2, 3.2, 3.32, 3.04, 2.6, 2.68, 3.13, 3.07, 3.97, 5.16, 5.34, 6.4, 10.01, 14.21, 12.52, 8.49, 3.98, 3.32, 3.32, 4.0, 4.66, 4.73, 5.05, 4.0, 4.11, 4.11, 4.11, 7.95, 7.95, 7.95, 7.95, 8.24, 8.24, 8.87, 8.58, 9.19, 9.19, 9.19, 9.19, 9.19, 9.77, 10.09, 10.09, 10.36, 10.65, 10.3, 10.3, 10.01, 9.42, 8.78, 8.45, 8.73, 8.73, 8.94, 9.3, 8.94, 8.94, 9.21, 8.65, 8.93, 8.55, 8.82, 8.82, 8.68, 8.68, 8.68, 8.68, 8.68, 8.68, 8.68, 8.91, 8.51, 8.51, 8.4, 8.0, 7.48, 7.48, 7.08, 6.95, 6.95, 6.41, 6.28, 5.75, 5.21, 4.84, 4.55, 4.0, 3.09, 2.84, 2.51, 2.51, 2.23, 2.84, 3.58, 2.21, 1.9, 1.26, 1.58, 2.23, 3.2, 3.22, 2.8, 2.6, 2.6, 2.68, 3.13, 3.58, 3.97, 4.41, 5.16, 8.82, 16.09, 13.86, 9.81, 4.43, 2.91, 3.32, 3.6, 4.09, 3.84, 4.12, 3.6, 3.07, 3.07, 3.07, 7.93, 7.93, 7.95, 7.95, 8.24, 8.56, 8.87, 8.58, 8.87, 9.19, 9.48, 9.48, 9.48, 9.77, 9.77, 9.77, 10.3, 10.3, 10.3, 10.59, 10.01, 9.37, 8.78, 8.73, 8.73, 8.73, 8.94, 8.94, 8.94, 8.73, 9.01, 8.65, 8.65, 8.93, 8.96, 8.96, 8.96, 8.82, 9.07, 8.68, 8.68, 8.68, 8.68, 8.68, 8.68, 8.28, 8.51, 8.0, 8.0, 7.48, 6.95, 6.95, 6.95, 6.41, 6.03, 5.49, 5.58, 5.21, 4.65, 4.07, 3.43, 2.86, 2.23, 2.48, 2.48, 2.86, 3.48, 3.16, 1.9, 1.26, 0.71, 1.4, 2.15, 2.41, 2.86, 2.8, 2.6, 2.68, 2.68, 3.13, 3.58, 4.02, 4.92, 14.3, 16.54, 14.75, 11.15, 6.11, 3.32, 3.45, 4.52, 4.66, 3.16, 2.21, 1.34, 0.53, 0.53, 0.53, 7.61, 7.61, 7.93, 7.95, 7.95, 8.56, 8.56, 8.87, 8.87, 9.17, 9.17, 9.17, 9.17, 9.77, 9.77, 10.06, 10.06, 10.3, 10.59, 10.01, 9.66, 9.37, 8.73, 8.73, 8.73, 8.94, 8.94, 8.73, 8.73, 8.73, 8.73, 8.73, 9.01, 8.65, 9.1, 8.96, 8.96, 8.96, 8.96, 8.96, 8.96, 9.2, 8.68, 8.68, 8.68, 8.68, 8.28, 8.15, 8.0, 7.48, 7.07, 6.7, 6.79, 6.41, 6.03, 5.86, 5.49, 5.29, 4.71, 4.41, 3.48, 2.86, 2.86, 2.22, 2.44, 2.86, 3.79, 3.35, 2.12, 1.7, 1.9, 1.4, 1.4, 1.2, 1.4, 2.21, 2.23, 2.4, 2.6, 2.6, 3.13, 3.13, 8.91, 13.77, 15.5, 13.79, 10.28, 6.11, 4.09, 4.12, 4.73, 2.68, 0.63, -0.0, -0.51, -0.0, -0.0, -0.0, 7.61, 7.61, 7.93, 8.24, 8.24, 8.56, 8.56, 8.87, 8.87, 9.17, 9.17, 9.17, 9.17, 9.46, 9.72, 10.06, 10.06, 10.06, 10.01, 10.01, 9.94, 9.37, 9.02, 8.73, 8.73, 8.94, 8.94, 8.73, 8.73, 8.73, 8.73, 8.73, 8.73, 9.01, 8.65, 8.93, 8.93, 9.1, 9.1, 9.35, 8.96, 8.96, 8.82, 8.68, 8.68, 8.68, 8.68, 8.15, 7.76, 7.61, 7.07, 7.07, 6.51, 6.15, 6.15, 5.59, 5.59, 5.29, 4.94, 4.71, 3.79, 3.2, 2.86, 2.44, 2.44, 3.12, 3.49, 4.0, 3.6, 2.12, 2.23, 2.23, 2.12, 2.12, 1.86, 1.49, 1.4, 1.9, 1.9, 2.4, 2.4, 3.07, 7.12, 11.66, 13.29, 12.14, 8.46, 3.74, 2.51, 2.51, 1.86, -0.0, -1.16, -1.27, -0.63, -0.63, -0.63, -0.63, 7.61, 7.61, 7.93, 7.93, 8.24, 8.53, 8.85, 8.56, 8.56, 9.17, 9.46, 9.46, 9.46, 9.46, 9.72, 9.72, 10.01, 10.01, 10.01, 9.66, 9.59, 9.37, 9.3, 8.73, 8.94, 8.94, 8.94, 8.73, 8.73, 8.73, 8.73, 8.73, 8.73, 8.73, 8.73, 8.65, 8.65, 8.65, 8.84, 9.1, 9.1, 8.72, 8.82, 8.82, 8.43, 8.43, 8.68, 8.15, 8.15, 7.61, 7.07, 6.79, 6.51, 6.15, 5.93, 5.93, 5.59, 5.35, 5.01, 4.43, 4.11, 3.49, 2.86, 2.86, 2.2, 2.84, 3.49, 3.48, 3.09, 3.22, 2.54, 2.24, 2.68, 2.24, 2.24, 2.17, 2.21, 1.4, 1.88, 1.9, 2.4, 3.07, 4.47, 8.82, 11.66, 11.66, 8.82, 2.24, 0.0, -1.2, -1.61, -1.8, -1.35, -1.41, -1.23, -0.63, -0.63, -0.63, 7.61, 7.61, 7.93, 7.93, 7.93, 8.53, 8.53, 8.85, 8.85, 9.13, 9.13, 9.46, 9.46, 9.46, 10.01, 10.01, 10.01, 10.01, 10.01, 9.94, 9.37, 9.02, 9.3, 8.94, 8.94, 8.94, 8.94, 8.73, 8.73, 8.73, 8.45, 8.45, 8.73, 8.73, 8.73, 8.73, 8.73, 8.73, 8.65, 8.65, 8.93, 8.93, 8.55, 8.82, 8.82, 8.43, 8.43, 8.27, 7.9, 7.35, 7.35, 6.79, 6.23, 6.23, 5.65, 5.65, 5.65, 5.06, 5.35, 4.74, 4.43, 4.11, 3.22, 2.84, 2.4, 2.4, 2.84, 3.12, 3.15, 3.16, 2.23, 2.12, 1.7, 1.34, 1.79, 2.24, 2.8, 2.15, 2.15, 2.21, 2.4, 3.07, 3.51, 7.15, 10.7, 12.42, 10.63, 2.68, -1.79, -2.79, -2.73, -2.44, -1.94, -1.27, -1.41, -1.47, -1.47, -1.47, 7.9, 7.9, 7.93, 7.93, 7.93, 8.82, 8.53, 8.53, 8.85, 9.13, 9.13, 9.13, 9.42, 9.42, 9.66, 10.01, 10.01, 10.01, 9.94, 9.94, 9.37, 9.3, 9.3, 8.94, 8.94, 8.94, 8.94, 8.73, 8.73, 8.73, 8.45, 8.45, 8.45, 8.45, 8.45, 8.45, 8.73, 8.73, 8.38, 8.65, 8.65, 8.93, 8.93, 8.55, 8.55, 8.82, 8.43, 8.43, 7.9, 7.72, 7.35, 6.79, 6.57, 6.23, 5.98, 5.65, 5.65, 5.37, 5.06, 5.06, 4.74, 4.12, 3.49, 2.84, 2.84, 2.4, 2.84, 2.84, 2.84, 2.76, 2.15, 1.9, 1.2, 1.2, 1.6, 1.86, 2.8, 2.86, 3.16, 2.5, 2.8, 2.91, 3.51, 6.21, 10.25, 12.52, 12.05, 7.12, 0.57, -2.0, -2.73, -2.79, -2.07, -2.07, -2.0, -2.0, -2.0, -2.0, 7.9, 7.9, 8.22, 8.22, 8.22, 8.5, 8.82, 8.82, 8.82, 9.13, 9.42, 9.42, 9.42, 9.66, 9.66, 9.66, 9.66, 9.94, 9.94, 9.59, 9.66, 9.3, 9.3, 9.3, 9.3, 9.3, 8.94, 8.73, 8.73, 8.45, 8.45, 8.45, 8.45, 8.45, 8.45, 8.45, 8.73, 8.73, 8.38, 8.38, 8.65, 8.65, 8.65, 8.93, 8.55, 8.55, 8.55, 8.0, 8.0, 8.0, 7.44, 6.87, 6.57, 6.23, 5.98, 5.69, 5.08, 5.37, 5.37, 5.06, 4.45, 4.12, 4.12, 3.49, 2.84, 2.4, 2.4, 2.84, 3.08, 3.49, 2.86, 2.23, 1.34, 1.79, 1.7, 2.12, 2.23, 2.8, 2.8, 2.8, 2.8, 3.32, 3.82, 6.51, 9.72, 12.49, 12.52, 9.39, 3.07, -0.0, -1.8, -2.07, -2.51, -2.79, -2.2, -2.2, -2.2, -2.2, 7.9, 7.9, 7.9, 8.22, 8.22, 8.5, 8.82, 8.82, 8.82, 8.82, 9.08, 9.08, 9.42, 9.94, 9.94, 9.94, 9.94, 9.94, 9.59, 9.37, 9.3, 9.3, 9.3, 9.3, 9.3, 9.3, 8.94, 8.73, 8.73, 8.73, 8.45, 8.45, 8.78, 8.78, 8.78, 8.45, 8.73, 8.73, 8.38, 8.15, 8.15, 8.65, 8.65, 8.65, 8.65, 8.29, 8.55, 8.37, 8.0, 8.0, 7.8, 6.87, 6.28, 6.28, 5.69, 5.69, 5.38, 5.08, 5.08, 5.06, 4.75, 4.45, 3.84, 3.49, 3.08, 2.84, 2.4, 2.84, 3.08, 3.49, 3.49, 3.6, 2.24, 4.02, 1.79, 1.79, 2.24, 2.6, 3.04, 2.8, 3.32, 3.74, 4.66, 6.28, 9.7, 11.6, 12.07, 9.83, 4.87, 0.54, -1.33, -2.07, -2.73, -3.38, -3.38, -2.88, -2.88, -2.88, 7.9, 7.9, 7.9, 8.22, 8.22, 8.5, 8.5, 8.82, 8.82, 8.82, 9.08, 9.08, 9.71, 9.94, 9.94, 9.94, 9.94, 9.94, 9.59, 9.66, 9.3, 9.3, 9.3, 9.58, 9.3, 9.3, 8.94, 8.94, 8.73, 8.73, 8.45, 8.45, 8.78, 8.78, 8.78, 8.78, 8.45, 8.73, 8.73, 8.15, 8.15, 8.15, 8.15, 8.65, 8.65, 8.65, 8.29, 8.08, 8.08, 8.08, 7.51, 6.92, 6.62, 6.28, 6.01, 5.69, 5.69, 5.38, 5.08, 5.08, 4.47, 4.75, 4.12, 3.84, 3.22, 3.08, 2.84, 2.84, 2.84, 2.84, 3.49, 3.72, 3.07, 4.02, 1.34, 1.34, 1.79, 2.24, 2.6, 2.8, 3.32, 3.83, 4.4, 6.28, 8.63, 11.15, 11.62, 10.25, 6.66, 1.86, -0.0, -2.07, -3.43, -3.38, -3.64, -3.33, -3.33, -3.33, 7.9, 7.9, 7.9, 8.22, 8.22, 8.5, 8.5, 8.82, 8.82, 8.82, 9.08, 9.08, 9.71, 9.94, 9.94, 9.94, 9.94, 9.94, 9.59, 9.66, 9.3, 9.3, 9.3, 9.58, 9.3, 9.3, 8.94, 8.94, 8.73, 8.73, 8.45, 8.45, 8.78, 8.78, 8.78, 8.78, 8.45, 8.73, 8.73, 8.15, 8.15, 8.15, 8.15, 8.65, 8.65, 8.65, 8.29, 8.08, 8.08, 8.08, 7.51, 6.92, 6.62, 6.28, 6.01, 5.69, 5.69, 5.38, 5.08, 5.08, 4.47, 4.75, 4.12, 3.84, 3.22, 3.08, 2.84, 2.84, 2.84, 2.84, 3.49, 3.72, 3.07, 4.02, 1.34, 1.34, 2.24, 2.24, 2.6, 2.8, 3.32, 3.45, 4.0, 5.86, 7.71, 9.72, 11.18, 10.7, 8.46, 4.41, 1.24, -1.16, -3.07, -2.98, -3.22, -3.11, -3.11, -3.11]}, {"header": {"dx": 0.06612293990616946, "dy": 0.0552356325346848, "nx": 98, "ny": 59, "la1": 35.046912555036876, "la2": 31.78801023549047, "lo1": -121.43107172385933, "lo2": -114.95102361305473, "refTime": "2026040802", "parameterCategory": 1, "parameterNumber": 3}, "data": [-10.43, -10.75, -10.45, -10.76, -10.76, -10.76, -10.45, -10.43, -9.82, -9.21, -9.21, -7.95, -6.42, -3.9, -2.6, -0.65, 0.0, 0.0, 0.0, 0.0, -0.71, -3.13, -3.32, -3.74, -4.41, -4.41, -4.41, -3.95, -3.51, -3.07, -3.13, -3.13, -2.68, -2.6, -2.4, -2.5, -2.86, -2.84, -2.84, -3.16, -3.48, -4.74, -5.15, -6.4, -7.65, -8.56, -9.54, -9.42, -9.31, -8.86, -6.79, -4.0, -1.47, -1.6, -0.74, -0.76, 0.0, 0.0, 0.0, 0.0, 0.0, 0.8, 0.77, 1.52, 1.58, 1.58, 1.44, 1.52, 1.52, 1.47, 1.54, 1.5, 0.78, 0.77, 0.77, 0.74, 0.73, 0.69, 0.59, 0.0, 0.0, 0.0, -0.45, -0.89, -1.2, -1.26, -0.57, -0.54, -0.53, 0.0, 0.0, 0.0, 0.0, 2.15, 3.45, 3.49, 3.48, 2.73, -10.43, -10.75, -10.75, -10.76, -11.06, -11.06, -11.06, -10.75, -10.13, -9.5, -9.5, -8.76, -6.14, -4.22, -3.4, -1.23, 0.0, 0.0, 0.0, -0.65, -0.71, -2.68, -3.47, -3.9, -3.51, -3.97, -4.41, -4.85, -4.41, -3.51, -3.51, -3.13, -3.13, -3.07, -2.8, -2.86, -2.84, -3.16, -3.49, -3.79, -5.09, -6.52, -7.59, -9.23, -11.14, -12.33, -12.56, -12.13, -11.37, -9.39, -4.92, -1.41, 0.0, -0.72, -0.67, 0.0, 0.0, 0.0, 0.0, 0.0, 0.0, 0.77, 0.77, 0.77, 0.77, 1.52, 1.52, 0.77, 0.74, 0.74, 0.75, 0.78, 0.74, 0.78, 0.78, 0.78, 0.73, 0.69, 0.59, 0.0, 0.0, 0.0, -0.45, -0.89, -1.2, -1.26, -0.57, -0.54, -0.53, 0.0, 0.0, 0.0, 0.0, 2.15, 3.45, 3.49, 3.48, 2.73, -10.43, -10.43, -10.75, -10.75, -11.06, -11.06, -11.06, -11.03, -10.75, -10.13, -9.8, -8.5, -7.27, -5.49, -3.79, -1.6, -0.79, -0.65, -0.65, -0.85, -1.2, -1.86, -3.58, -4.57, -4.38, -3.97, -4.41, -4.41, -4.41, -4.85, -4.73, -4.41, -3.58, -3.13, -2.8, -2.53, -3.48, -4.46, -5.09, -6.08, -7.95, -9.84, -11.87, -13.11, -14.08, -14.37, -13.35, -11.7, -8.66, -4.03, 0.0, 0.71, 0.0, 0.0, 0.0, 0.0, 0.0, 0.0, 0.0, 0.0, 0.0, 0.0, 0.0, 0.0, 0.73, 0.77, 0.77, 0.74, 0.78, 0.78, 0.75, 0.0, 0.0, 0.0, 0.0, 0.0, 0.0, 0.0, 0.0, 0.0, 0.0, -0.6, -0.89, -1.34, -1.27, -1.6, -1.26, -1.24, -0.65, -0.61, -0.7, 0.0, 1.4, 3.07, 3.83, 3.49, 2.79, 2.0, -10.43, -10.43, -10.75, -10.75, -11.03, -11.03, -11.36, -11.03, -10.45, -10.75, -10.4, -10.01, -8.65, -5.69, -4.01, -2.4, -1.55, -1.83, -1.4, -1.2, -1.4, -0.85, -2.54, -5.16, -5.86, -5.26, -4.73, -4.41, -4.85, -5.31, -6.21, -6.98, -6.98, -5.36, -3.9, -4.6, -4.54, -5.37, -8.3, -9.56, -11.54, -13.14, -13.14, -12.49, -11.14, -10.43, -8.76, -5.38, -1.55, 0.85, 1.49, 0.7, 0.0, 0.0, 0.0, 0.0, 0.0, 0.0, 0.0, 0.0, 0.0, 0.0, 0.0, 0.0, 0.0, 0.0, 0.0, 0.0, 0.0, 0.0, 0.0, 0.0, 0.0, 0.0, 0.0, -0.74, -0.77, -0.76, 0.0, 0.0, 0.0, -0.71, -0.95, -1.2, -1.2, -1.6, -1.26, -1.24, -1.2, -1.16, -0.61, 0.65, 2.68, 3.45, 3.45, 3.49, 2.48, 2.0, -10.43, -10.43, -10.43, -10.75, -11.03, -11.03, -11.03, -11.03, -10.45, -11.03, -10.99, -10.59, -8.65, -5.77, -4.01, -3.22, -2.66, -2.2, -1.6, -1.88, -2.21, -1.74, -2.23, -3.58, -5.59, -5.94, -6.36, -5.73, -5.7, -5.81, -6.71, -7.56, -9.26, -10.25, -10.68, -10.18, -9.8, -10.04, -12.51, -14.07, -13.14, -10.55, -8.27, -6.14, -5.64, -4.5, -2.4, 0.0, 0.79, 1.41, 0.7, 0.0, 0.0, -0.72, -0.78, -0.76, -0.77, -0.74, -0.78, -0.78, -0.81, -0.73, -0.8, 0.0, 0.0, 0.0, 0.0, 0.0, 0.0, 0.0, 0.0, 0.0, 0.0, -0.78, -0.74, -1.32, -1.58, -1.55, -1.35, -0.59, -0.61, -0.65, -0.71, -0.95, -1.2, -1.6, -1.58, -1.9, -1.88, -1.2, 0.0, 2.5, 3.32, 3.07, 3.45, 2.51, 2.48, 2.0, -10.4, -10.43, -10.43, -10.75, -11.03, -11.03, -11.03, -11.03, -10.75, -11.06, -10.99, -9.94, -8.03, -5.69, -4.01, -3.22, -2.98, -3.22, -3.72, -4.46, -6.0, -6.28, -5.73, -6.71, -7.52, -7.52, -8.24, -8.43, -7.98, -7.15, -6.71, -6.71, -8.05, -10.7, -11.99, -12.18, -12.37, -12.47, -13.51, -13.04, -11.09, -8.4, -5.43, -3.91, -3.88, -3.21, -1.55, 0.0, 0.0, 0.0, 0.0, 0.0, 0.0, -0.72, -0.83, -1.49, -1.58, -1.6, -1.54, -1.54, -1.52, -1.49, -0.79, -0.71, -0.76, -0.76, -0.8, -0.77, -0.77, 0.0, 0.0, 0.0, 0.0, 0.0, -0.77, -1.49, -1.52, -2.29, -1.8, -1.33, -1.16, -1.16, -1.2, -1.26, -1.26, -1.86, -1.58, -1.49, -1.2, 0.0, 2.4, 3.32, 3.32, 3.07, 3.07, 2.51, 2.0, 2.07, -10.4, -10.72, -10.43, -10.43, -11.03, -11.03, -11.03, -11.03, -10.75, -11.36, -10.94, -9.21, -7.41, -4.83, -4.71, -3.22, -3.11, -4.16, -5.37, -5.72, -6.7, -8.0, -7.45, -8.49, -10.68, -10.68, -11.57, -11.44, -10.04, -8.56, -7.08, -5.36, -5.16, -7.35, -10.1, -11.28, -13.29, -13.2, -9.67, -8.55, -8.24, -7.74, -9.21, -8.94, -7.95, -5.78, -3.2, -1.41, -0.76, -1.14, -1.05, -0.78, 0.0, -0.78, -1.55, -1.49, -1.58, -2.23, -2.35, -1.6, -0.8, -0.76, -0.79, -0.71, -0.76, -0.8, -0.76, -1.49, -0.76, -0.77, 0.0, 0.0, 0.0, 0.0, -0.77, -0.79, -0.72, -0.66, -1.13, -2.15, -1.88, -1.88, -1.9, -1.58, -1.86, -1.86, -1.24, -0.54, 0.71, 1.86, 3.07, 2.91, 2.91, 3.32, 2.79, 2.51, 2.07, 2.51, -10.4, -10.4, -10.72, -10.43, -11.03, -11.03, -11.03, -11.36, -11.03, -11.03, -9.66, -8.68, -7.2, -4.16, -4.66, -3.69, -3.79, -3.91, -4.94, -4.56, -4.65, -4.29, -4.56, -5.09, -5.77, -7.6, -8.43, -9.6, -9.4, -9.4, -8.79, -8.94, -9.33, -10.21, -10.65, -11.47, -11.03, -8.82, -4.6, -4.98, -5.81, -7.4, -9.8, -10.21, -6.4, -2.6, -2.21, -1.6, -1.55, -2.21, -1.52, -0.78, -0.74, -0.79, -0.76, -1.58, -1.58, -1.58, -1.54, -0.81, -0.77, -0.73, -0.8, -0.77, -0.77, -0.76, 0.0, 0.0, 0.0, 0.0, 0.0, 0.0, 0.0, -0.78, -0.77, 0.0, 0.0, 0.0, 0.0, -1.33, -2.53, -2.53, -2.5, -1.86, -1.26, -0.6, 0.0, 0.57, 1.86, 2.4, 2.63, 2.63, 3.07, 2.91, 2.79, 2.51, 1.8, 2.51, -10.4, -10.4, -10.4, -10.72, -10.43, -11.03, -11.03, -11.36, -11.36, -10.36, -9.21, -9.01, -9.21, -9.03, -7.68, -6.64, -5.89, -5.76, -5.21, -3.9, -2.99, -3.2, -3.21, -2.44, -2.88, -2.21, -2.68, -3.47, -8.8, -11.34, -13.37, -15.65, -15.61, -14.81, -12.87, -10.01, -6.79, -2.54, -1.6, -2.12, -2.8, -3.2, -3.93, -2.23, 0.0, 0.0, -1.34, -1.49, -1.4, -2.4, -2.21, -1.52, -1.45, -1.49, -1.58, -1.58, -1.52, -1.6, -0.78, -0.74, -0.81, -0.81, -0.81, -0.77, 0.0, 0.76, 1.49, 0.76, 0.76, 0.77, 0.0, 0.0, 0.0, 0.0, 0.0, 0.0, 0.0, 0.0, 0.0, -0.59, -1.61, -2.5, -1.86, -0.63, 0.0, 0.89, 1.2, 1.49, 1.86, 2.17, 2.17, 2.6, 2.63, 2.4, 2.53, 2.07, 2.07, 2.51, -10.09, -10.4, -10.4, -10.72, -10.72, -11.03, -11.03, -11.36, -11.03, -10.06, -9.48, -9.88, -10.4, -11.6, -12.15, -10.66, -10.66, -10.66, -10.04, -8.72, -8.8, -8.72, -7.9, -6.44, -5.15, -2.68, -2.21, -2.6, -7.15, -12.47, -12.52, -9.83, -5.81, -4.02, -7.15, -5.81, -2.24, -0.45, 0.0, 0.0, -0.6, -1.24, -1.0, 0.0, 0.6, 0.6, 0.0, -1.26, -1.49, -1.6, -2.2, -2.29, -2.35, -2.4, -1.58, -1.67, -1.52, -1.54, -1.54, -1.47, -1.47, -0.81, -1.09, 0.0, 2.51, 3.0, 2.82, 2.06, 1.4, 0.76, 0.0, 0.0, -0.68, -0.68, -0.7, -0.69, -0.73, -0.76, -0.67, -0.7, -1.2, -1.34, -0.89, 0.0, 0.89, 0.89, 0.89, 1.2, 1.2, 1.79, 1.79, 2.24, 2.24, 2.12, 1.9, 1.84, 1.84, 2.53, -10.09, -9.8, -10.4, -10.4, -10.72, -11.03, -11.03, -11.36, -11.33, -10.23, -9.76, -10.3, -11.07, -11.62, -12.62, -12.39, -13.25, -12.95, -12.79, -12.62, -13.75, -14.05, -13.19, -11.04, -10.04, -5.24, -2.53, -2.15, -2.86, -3.51, -2.68, 0.0, 1.2, 0.6, -1.26, -3.04, -2.24, 0.0, 0.0, 0.6, 0.99, 0.8, 0.0, -2.48, -2.73, -0.71, 0.0, -0.71, -1.24, -1.49, -2.3, -2.6, -2.47, -2.35, -2.26, -2.31, -2.35, -2.47, -2.28, -2.47, -2.23, -0.76, 0.78, 3.11, 5.69, 4.83, 4.03, 3.2, 1.52, 0.0, -0.76, -1.43, -1.45, -1.45, -1.39, -1.36, -2.06, -2.18, -2.26, -1.52, -1.4, -1.34, -0.99, -0.0, 0.32, 0.45, 0.0, 0.45, 0.89, 1.34, 1.34, 1.34, 1.34, 1.2, 1.24, 1.61, 1.88, 2.53, -10.09, -10.09, -10.4, -10.4, -10.72, -10.72, -11.03, -11.03, -10.4, -10.23, -10.04, -10.96, -11.16, -10.94, -10.06, -10.01, -9.59, -10.96, -12.42, -12.79, -11.6, -10.16, -9.25, -11.38, -9.77, -7.64, -4.29, -0.4, 0.0, 0.0, 0.0, 1.79, 1.7, 1.26, 0.32, -0.89, -0.89, 0.0, 0.63, 0.57, 1.24, 1.24, -0.6, -5.81, -6.4, -2.21, -1.49, -1.49, -1.49, -2.21, -3.16, -3.07, -3.22, -2.88, -3.11, -2.51, -2.18, -2.44, -3.15, -3.09, -0.76, 0.7, 4.11, 5.43, 6.4, 6.07, 6.07, 4.01, 1.6, 0.0, -1.36, -2.83, -2.89, -2.28, -2.23, -2.44, -2.31, -2.4, -2.99, -2.82, -2.07, -1.26, -1.2, -0.6, -0.4, -0.0, -0.0, -0.0, 0.32, 0.63, 0.63, 0.89, 0.89, 0.89, 0.95, 1.24, 1.9, 2.5, -10.09, -10.09, -10.4, -10.4, -10.4, -10.72, -11.03, -11.03, -10.69, -10.23, -10.79, -11.07, -11.72, -11.28, -10.43, -9.5, -8.24, -7.93, -9.02, -9.86, -8.94, -7.81, -6.67, -4.83, -4.21, -3.22, -1.6, 0.0, 0.99, 0.42, -0.0, 0.63, 0.95, 0.95, 0.89, 0.89, 0.89, 1.2, 0.6, 0.0, 0.57, 0.0, -1.2, -3.51, -4.38, -4.15, -3.6, -2.86, -3.22, -3.22, -3.49, -4.46, -5.09, -5.09, -3.79, -3.22, -1.08, 0.0, -2.4, -0.8, 1.34, 4.15, 5.34, 6.07, 6.65, 6.21, 5.16, 4.12, 2.4, 0.82, 0.0, -2.26, -3.27, -3.8, -2.99, -3.27, -3.09, -3.09, -3.4, -2.72, -1.35, 0.0, 0.57, 0.0, -1.24, -0.6, -0.6, -0.0, -0.0, -0.0, 0.63, 0.6, 0.95, 0.89, 0.89, 0.95, 1.26, 1.58, -10.36, -10.36, -10.07, -10.4, -10.4, -10.72, -10.43, -10.72, -10.36, -10.59, -10.7, -11.16, -11.23, -11.52, -11.03, -10.47, -9.22, -7.96, -7.61, -7.3, -7.3, -6.7, -6.33, -5.43, -4.54, -3.42, -2.1, -1.13, 0.0, 0.57, -0.0, 0.63, 1.9, 0.95, 1.2, 1.34, 1.34, 1.2, 0.0, 0.0, -0.57, -0.8, -2.12, -7.15, -7.5, -5.81, -1.9, -2.21, -2.53, -2.21, -2.53, -3.93, -3.58, -2.23, -1.6, -1.26, -1.26, -1.13, -1.58, 0.63, 4.15, 4.47, 5.26, 4.92, 4.92, 4.47, 4.47, 2.86, 2.32, 1.33, 1.6, 0.0, -3.11, -4.95, -4.83, -4.71, -3.79, -3.33, -2.4, 0.0, 0.7, 2.2, 2.11, 1.41, -0.95, -0.99, -1.24, -0.57, -0.57, -0.0, -0.0, 0.57, 0.6, 0.63, 0.0, 0.0, 0.63, 0.6, -10.36, -10.36, -10.36, -10.4, -10.4, -10.4, -10.43, -10.4, -10.36, -10.59, -10.8, -11.16, -11.23, -11.87, -11.63, -11.08, -10.47, -9.84, -8.59, -7.33, -6.98, -6.97, -6.94, -6.46, -5.77, -5.11, -3.84, -3.32, -1.8, 0.0, 0.0, 0.32, 1.58, 1.9, 2.8, 3.58, 3.13, 0.6, 0.0, -0.6, -1.26, -2.48, -4.24, -4.02, -1.9, 2.24, 2.68, 0.0, 0.0, 0.0, -0.85, -0.65, 0.0, 0.95, 0.63, 0.0, -2.12, -4.46, -2.86, 1.34, 3.04, 2.68, 2.54, 2.12, 1.7, 1.79, 1.34, 0.95, 1.2, 1.74, 1.66, 0.0, -2.29, -5.43, -5.43, -4.74, -1.6, 0.0, 0.79, 2.4, 3.11, 3.2, 2.18, 1.45, 0.53, -0.0, -0.57, -1.24, -0.71, -0.0, -0.0, -0.0, -0.0, -0.0, 0.0, 0.0, 0.0, 0.0, -10.36, -10.36, -10.36, -10.07, -10.4, -10.4, -10.72, -10.4, -10.36, -10.59, -11.16, -11.23, -11.28, -11.58, -11.63, -11.38, -11.39, -11.1, -10.13, -8.59, -7.96, -7.59, -7.57, -7.53, -6.85, -5.92, -5.08, -3.99, -3.15, -1.57, -0.54, 0.0, 0.0, 1.79, 3.13, 1.79, 1.79, 1.2, 0.0, -1.6, -1.58, -1.24, -1.6, 2.24, 3.82, 4.77, 4.47, 3.58, 2.8, 2.21, 0.0, 0.57, 1.24, 1.58, 1.58, 0.0, -1.74, -4.29, 0.0, 2.23, 3.74, 5.2, 3.48, 1.55, 0.0, 0.0, 0.0, 0.0, 1.26, 1.0, 0.0, 0.0, -1.9, -2.6, -2.12, 0.0, 2.21, 4.01, 4.03, 4.03, 3.91, 3.09, 2.26, 0.0, 0.0, 0.0, -0.0, -0.6, -0.0, -0.0, -0.0, -0.0, -0.6, -0.0, 0.0, 0.0, 0.0, 0.0, -10.36, -10.36, -10.36, -10.36, -10.4, -10.4, -10.72, -10.4, -10.36, -10.65, -10.88, -11.23, -11.28, -11.58, -11.63, -11.38, -11.08, -11.1, -11.1, -10.47, -9.5, -8.59, -8.2, -7.1, -5.73, -4.74, -3.5, -2.85, -2.26, -2.23, -2.23, -1.7, -1.0, 0.0, 0.89, 1.79, 1.34, 0.89, 0.0, -2.53, -2.21, 0.0, 2.21, 1.7, 4.02, 4.47, 4.47, 4.02, 3.82, 3.16, 3.16, 4.09, 3.79, 3.79, 2.4, 0.0, -1.18, 0.0, 3.45, 5.93, 5.93, 4.74, 2.32, 1.23, 0.0, 0.0, 0.0, 0.0, 0.0, 0.0, -0.8, -0.63, 0.0, 0.0, 0.63, 2.8, 5.43, 6.53, 5.64, 4.96, 3.91, 3.09, 2.2, 0.0, -0.8, -0.0, -0.0, 1.26, 0.71, -0.0, -0.0, -0.57, -0.0, 0.63, 0.63, 0.8, 0.89, 0.89, -10.69, -10.36, -10.36, -10.36, -10.4, -10.4, -10.4, -10.4, -10.36, -10.65, -11.23, -11.28, -11.33, -11.33, -11.36, -11.06, -11.08, -11.1, -10.47, -10.13, -8.85, -8.57, -7.8, -5.8, -3.41, -2.85, -2.28, -2.35, -2.35, -2.94, -3.96, -4.12, -3.21, -0.53, 0.6, 1.26, 0.0, -0.63, -1.6, -0.95, 0.0, 0.89, 0.89, 1.34, 3.82, 4.02, 4.24, 4.24, 4.09, 3.48, 3.79, 4.11, 4.65, 4.11, 3.49, 2.32, 2.26, 3.4, 5.69, 5.69, 4.75, 3.2, 2.26, 1.1, 0.0, 0.0, 0.0, -0.71, -2.54, -3.82, -1.9, 0.0, 0.7, 1.55, 2.3, 2.84, 3.64, 4.6, 4.71, 3.8, 2.9, 2.35, 1.41, 0.0, 0.89, 2.24, 3.13, 2.6, 2.6, 2.17, 1.2, 1.2, 1.7, 2.68, 2.68, 2.68, 2.24, 2.24, -10.69, -10.69, -10.36, -10.36, -10.4, -10.4, -10.4, -10.4, -10.36, -10.65, -11.23, -11.28, -11.58, -11.58, -11.33, -11.76, -11.06, -11.08, -9.84, -8.2, -7.76, -8.16, -7.8, -6.1, -5.6, -5.3, -3.96, -4.58, -5.41, -4.55, -5.25, -5.62, -3.83, -0.65, 0.0, 0.0, -0.57, -1.61, -1.74, -0.8, 0.63, 0.89, 0.89, 3.13, 3.82, 4.24, 3.72, 3.16, 2.73, 2.73, 4.11, 5.01, 5.01, 5.01, 5.01, 4.47, 4.47, 4.75, 4.46, 3.6, 2.4, 1.18, 1.18, 0.0, 0.0, -0.7, -0.7, -1.49, -2.98, -2.0, 0.0, 1.6, 3.11, 3.04, 2.31, 0.78, 0.0, 0.0, 0.0, 0.77, 0.0, 0.0, 0.0, 0.61, 2.15, 3.14, 3.6, 4.24, 4.02, 3.58, 3.58, 3.13, 3.13, 3.58, 3.58, 3.58, 3.53, 3.53, -10.69, -10.69, -10.36, -10.36, -10.69, -10.4, -10.4, -10.4, -10.36, -10.65, -10.94, -11.28, -11.58, -11.58, -11.92, -11.03, -11.06, -11.03, -10.86, -8.66, -8.5, -9.45, -9.48, -9.22, -9.31, -9.49, -9.02, -7.53, -7.5, -7.48, -6.85, -5.08, -2.23, -0.42, 0.0, 0.0, -0.54, -0.99, -0.51, 0.0, 1.13, 1.61, 1.86, 2.4, 2.91, 3.16, 2.48, 2.73, 2.73, 2.73, 4.46, 5.2, 5.2, 5.6, 2.86, 3.16, 5.69, 3.72, 3.11, 2.4, 1.18, 0.0, 0.0, 0.0, -0.73, -0.61, -0.76, 0.0, 0.0, 1.63, 3.06, 3.82, 3.87, 2.39, 0.75, -1.58, -3.7, -5.38, -3.15, -1.55, -0.74, 0.0, 0.0, 1.41, 2.3, 3.48, 4.09, 4.93, 3.82, 3.97, 3.97, 3.82, 3.97, 3.58, 3.58, 3.58, 3.53, 3.53, -10.69, -10.69, -10.36, -10.36, -10.69, -10.4, -10.4, -10.4, -10.69, -10.94, -10.94, -11.24, -11.58, -11.63, -11.63, -11.67, -11.67, -11.33, -11.16, -11.87, -11.92, -11.4, -11.4, -11.08, -10.47, -10.77, -10.13, -9.49, -9.21, -9.2, -6.7, -1.98, -0.63, 0.0, 0.0, 0.0, 0.0, 0.0, 0.0, 1.23, 1.73, 2.48, 2.23, 2.21, 2.68, 3.16, 2.48, 1.55, 1.55, 3.48, 5.2, 5.64, 5.64, 5.2, 5.37, 3.22, 4.46, 4.43, 3.4, 0.0, 0.0, 0.0, -1.1, -1.18, -0.73, 0.0, 0.71, 2.21, 4.46, 5.77, 6.95, 6.87, 4.71, 1.48, -1.51, -4.65, -8.85, -8.93, -6.95, -4.56, -2.35, -0.72, 0.0, 1.35, 3.22, 3.49, 4.4, 4.66, 5.05, 4.0, 3.6, 3.6, 3.6, 3.53, 3.58, 3.58, 3.58, 3.58, -10.69, -10.69, -10.36, -10.36, -10.69, -10.4, -10.4, -10.4, -10.69, -10.94, -11.28, -11.58, -11.92, -11.63, -11.96, -11.99, -11.99, -11.03, -11.87, -12.51, -12.3, -12.33, -12.62, -12.3, -12.02, -11.4, -9.83, -9.2, -8.56, -8.2, -4.83, -0.54, 0.0, 0.0, 0.0, 0.0, 0.0, 0.0, 0.0, 0.51, 1.27, 1.8, 2.23, 2.21, 3.07, 2.68, 2.48, 1.41, 1.27, 4.24, 5.36, 5.2, 5.2, 5.2, 5.6, 5.75, 4.84, 6.07, 5.69, 1.14, 0.0, -0.79, -1.55, -1.47, -0.79, 0.57, 3.95, 4.02, 4.41, 4.98, 5.81, 6.18, 4.83, 0.79, -5.69, -8.24, -10.45, -10.79, -9.78, -7.59, -4.65, -2.0, 0.0, 2.07, 3.48, 4.09, 4.4, 4.0, 4.12, 4.12, 3.72, 3.14, 3.49, 3.6, 3.53, 3.58, 3.58, 3.58, -10.36, -10.36, -10.36, -10.36, -10.69, -10.69, -10.4, -10.4, -10.69, -10.94, -11.28, -11.58, -11.63, -11.96, -11.96, -12.27, -11.99, -11.96, -11.63, -11.99, -11.4, -11.1, -11.38, -11.67, -12.01, -11.4, -10.08, -8.77, -8.14, -6.9, -3.81, -0.51, 0.0, 0.0, 0.0, 0.0, 0.0, 0.0, 0.0, 0.61, 0.51, 1.13, 1.6, 2.23, 2.79, 3.07, 2.48, 1.27, 2.84, 4.92, 5.36, 5.2, 5.2, 5.2, 5.2, 5.81, 4.24, 5.34, 5.24, 2.98, 0.0, -1.49, -2.2, -1.49, 0.6, 3.95, 5.75, 4.41, 2.6, 2.12, 1.34, 0.0, 0.0, 0.0, -2.8, -5.86, -9.05, -10.73, -10.65, -9.6, -7.2, -2.84, 0.0, 2.15, 3.14, 3.83, 3.49, 3.14, 3.16, 3.79, 3.78, 4.46, 3.14, 3.14, 3.82, 3.97, 3.97, 3.97, -10.36, -10.36, -10.36, -10.36, -10.69, -10.69, -10.4, -10.4, -10.69, -10.94, -11.28, -11.58, -11.63, -12.22, -12.27, -12.6, -12.3, -11.99, -11.96, -11.7, -11.1, -10.13, -9.84, -9.84, -10.76, -10.76, -10.74, -9.67, -8.11, -6.43, -4.38, -2.1, -1.05, -0.55, -0.5, -0.57, 0.0, 0.0, 0.0, 0.0, 0.51, 1.11, 1.11, 1.8, 2.23, 2.21, 1.41, 1.41, 3.72, 5.2, 5.2, 5.2, 5.2, 5.2, 5.2, 5.2, 2.12, 2.12, 2.6, 3.22, 1.66, -0.85, -1.49, 0.0, 3.58, 6.71, 6.21, 7.21, 4.15, 1.86, 0.0, -2.84, 0.0, 1.4, 2.73, 0.0, -5.4, -8.8, -10.4, -8.8, -6.13, -2.21, 0.0, 1.9, 2.5, 3.07, 2.53, 2.84, 3.14, 3.48, 4.11, 3.78, 4.12, 3.84, 3.6, 3.82, 3.82, 3.82, -10.36, -10.36, -10.36, -10.36, -10.36, -10.36, -10.4, -10.4, -10.69, -10.69, -10.99, -11.92, -12.22, -12.56, -12.6, -12.6, -12.6, -12.27, -11.67, -11.7, -11.1, -10.13, -9.21, -9.22, -9.22, -9.84, -10.11, -9.42, -8.77, -7.06, -5.14, -3.91, -2.69, -1.71, -1.1, -0.57, -0.53, 0.0, 0.0, 0.0, 0.0, 0.54, 1.19, 1.08, 1.58, 1.33, 1.16, 1.84, 2.84, 3.07, 3.2, 4.09, 4.66, 4.77, 5.2, 5.2, 4.24, 1.34, 0.95, 0.65, 0.96, 0.0, 0.0, 1.79, 6.21, 6.71, 6.21, 6.51, 5.59, 0.8, -1.49, -3.22, -1.07, 1.54, 3.95, 3.79, 0.71, -2.12, -6.14, -3.04, -2.91, -1.24, 0.6, 2.17, 2.6, 2.91, 2.86, 3.07, 3.07, 3.14, 3.48, 4.75, 3.78, 3.84, 4.09, 3.6, 3.6, 3.6, -10.65, -10.65, -10.65, -10.36, -10.36, -10.36, -10.36, -10.4, -10.69, -10.69, -10.99, -11.58, -12.22, -12.27, -12.6, -12.6, -12.6, -12.27, -11.99, -11.67, -11.1, -10.76, -9.84, -9.49, -8.85, -8.83, -9.2, -8.79, -8.4, -7.5, -6.46, -5.17, -3.89, -2.8, -2.3, -1.67, -1.07, -0.55, 0.0, 0.0, 0.0, 0.58, 0.53, 1.16, 1.19, 1.23, 1.11, 1.8, 2.51, 2.53, 2.5, 2.4, 4.24, 4.92, 5.2, 5.2, 4.66, 3.82, 2.8, 0.0, 0.0, 1.14, 1.66, 4.47, 6.26, 6.26, 5.75, 5.31, 3.2, 0.8, 0.0, -1.19, -0.84, 0.0, 3.16, 5.41, 3.47, 0.0, -0.63, -0.63, -0.89, -0.45, 0.45, 1.7, 2.68, 3.07, 3.32, 3.07, 3.07, 2.79, 2.84, 4.43, 4.11, 3.78, 3.49, 3.14, 3.14, 3.14, -10.65, -10.65, -10.65, -10.36, -10.36, -10.36, -10.36, -10.69, -10.69, -10.69, -10.99, -11.33, -12.22, -12.27, -12.27, -12.27, -11.99, -11.67, -11.67, -11.38, -11.39, -10.76, -10.76, -10.13, -9.49, -8.83, -8.83, -8.16, -8.18, -6.88, -6.25, -5.64, -5.02, -3.91, -3.42, -2.77, -2.25, -1.73, -1.12, -0.57, 0.0, 0.0, 0.57, 1.14, 1.05, 1.16, 1.19, 1.23, 1.27, 1.16, 1.2, 1.86, 2.24, 3.13, 4.02, 3.13, 4.24, 4.47, 2.24, 0.63, 0.0, 0.0, 0.98, 4.66, 7.6, 5.81, 4.85, 2.6, 1.0, 0.0, 0.0, -1.41, -2.35, -0.79, 1.49, 4.0, 3.15, 0.0, 0.0, -0.0, -0.0, -0.6, -0.0, 1.24, 1.86, 2.68, 3.07, 3.32, 3.07, 2.53, 2.53, 2.23, 3.48, 3.48, 3.48, 3.16, 2.84, 2.84, -10.65, -10.65, -10.65, -10.65, -10.36, -10.36, -10.36, -10.36, -10.36, -10.69, -10.4, -11.33, -12.22, -12.56, -12.27, -11.67, -11.67, -11.67, -11.67, -11.38, -11.39, -10.76, -10.76, -10.76, -10.13, -9.21, -8.83, -7.93, -7.55, -6.92, -6.29, -5.23, -4.6, -4.16, -3.45, -3.45, -2.8, -1.73, -1.18, -0.54, 0.0, 0.0, 0.56, 1.12, 1.12, 1.14, 0.53, 0.54, 0.55, 0.0, 0.0, 0.8, 1.79, 2.24, 3.07, 3.13, 4.47, 4.47, 4.02, 1.34, 0.0, 0.0, 0.7, 4.15, 5.75, 7.06, 3.58, 0.85, -0.85, -0.85, 0.0, -0.7, -1.52, -1.6, -0.73, -0.72, -0.79, -0.61, 0.0, 0.0, -0.0, -0.0, -0.0, 0.65, 1.49, 2.12, 2.24, 3.07, 2.5, 1.88, 1.88, 1.84, 2.51, 2.48, 3.16, 2.79, 2.51, 2.51, -10.65, -10.65, -10.65, -10.65, -10.65, -10.36, -10.36, -10.09, -10.09, -10.09, -10.4, -10.99, -11.96, -12.56, -11.99, -11.67, -11.67, -11.36, -11.06, -11.38, -11.08, -10.76, -10.76, -10.76, -10.47, -10.13, -9.21, -8.2, -7.55, -6.46, -5.62, -5.02, -4.4, -3.97, -3.49, -3.49, -2.83, -2.3, -1.67, -1.14, -0.58, 0.0, 0.0, 0.0, 0.78, 1.67, 0.59, -0.57, -1.16, -0.59, -0.54, 0.0, 0.32, 1.34, 2.17, 3.07, 4.47, 4.47, 3.58, 1.79, 0.0, 0.0, 0.85, 3.74, 4.66, 5.34, 5.43, 2.53, -0.8, -1.49, -0.87, -0.76, -0.79, -2.26, -4.46, -6.14, -5.1, -2.15, -0.6, 0.0, 0.0, -0.63, -0.0, 2.0, 2.4, 2.8, 2.12, 1.79, 1.58, 1.2, 1.16, 1.16, 1.33, 1.8, 2.23, 2.48, 2.23, 2.23, -10.65, -10.65, -10.65, -10.3, -10.3, -9.77, -9.77, -9.77, -10.09, -10.09, -9.8, -10.72, -11.63, -11.96, -11.99, -11.67, -11.06, -11.36, -11.36, -11.06, -11.08, -10.77, -10.77, -10.13, -10.13, -9.49, -9.49, -8.2, -7.31, -6.5, -5.62, -5.2, -4.57, -3.94, -3.76, -3.49, -2.83, -2.19, -1.69, -1.69, -1.16, -1.16, -0.56, -0.58, 0.0, 0.76, 0.0, 0.0, -0.89, -1.34, -1.34, -1.34, 0.0, 0.45, 1.79, 2.6, 2.63, 2.68, 1.79, 2.54, 0.6, 0.0, 2.21, 3.74, 3.22, 3.6, 4.41, 3.47, 0.6, -1.58, -2.84, -1.66, 0.0, 0.0, -3.11, -5.41, -5.52, -3.55, -0.7, 0.0, 0.0, -0.53, 0.54, 2.84, 3.64, 3.07, 2.24, 1.2, 0.57, 0.54, 0.54, 0.65, 0.61, 1.33, 1.8, 1.8, 1.8, 1.8, -10.65, -10.65, -10.3, -10.3, -10.06, -10.06, -9.77, -9.77, -9.77, -9.77, -9.8, -10.12, -11.03, -11.96, -11.99, -11.67, -11.06, -11.36, -11.36, -11.06, -11.08, -10.47, -10.13, -9.84, -9.49, -9.22, -8.86, -8.22, -6.27, -5.83, -5.83, -5.17, -5.2, -4.54, -3.91, -3.45, -2.97, -2.19, -1.69, -1.14, -1.14, -1.07, -1.09, -0.57, -1.16, -1.72, -0.76, 0.0, 0.0, -0.45, -0.89, -0.63, -0.6, 0.0, 1.2, 2.24, 2.24, 2.24, 2.24, 2.54, 1.9, 1.49, 3.22, 1.6, 1.4, 1.0, 1.34, 1.34, 0.6, -0.71, -1.49, 0.0, 0.88, 2.28, 0.0, -3.11, -4.68, -4.71, -1.55, 0.0, 0.0, 0.0, 1.67, 3.84, 4.46, 3.22, 1.95, 0.99, 0.0, 0.0, 0.0, 0.0, 0.0, 0.59, 1.13, 1.27, 1.11, 1.11, -10.3, -10.3, -10.3, -10.06, -10.06, -10.06, -9.72, -9.77, -9.48, -9.77, -9.8, -10.12, -10.4, -11.63, -11.67, -11.99, -11.67, -11.36, -11.03, -10.45, -10.76, -10.47, -10.13, -9.84, -9.5, -8.86, -8.51, -7.6, -7.12, -5.89, -5.62, -5.83, -5.17, -4.72, -3.89, -3.42, -2.8, -2.3, -1.67, -1.12, -1.12, -1.12, -1.14, -1.09, -1.1, -1.76, -1.12, 0.0, 0.0, 0.0, 0.0, 0.0, 0.0, 0.0, 1.13, 1.9, 2.4, 2.17, 2.17, 2.17, 2.6, 2.84, 1.8, 0.76, 0.0, 0.0, 0.0, 0.0, -0.6, 0.0, 0.0, 1.58, 1.58, 1.03, 1.51, -0.77, -3.16, -3.09, -2.26, 0.0, 0.68, 2.76, 4.23, 3.8, 3.78, 3.17, 1.55, 1.0, 0.54, 0.0, 0.0, 0.0, 0.0, 0.0, 0.59, 0.66, 0.66, 0.66, -10.3, -10.3, -10.06, -10.06, -9.72, -9.72, -9.46, -9.17, -9.17, -9.48, -9.8, -9.8, -10.4, -10.72, -11.67, -11.99, -11.67, -11.36, -11.03, -10.45, -10.45, -10.45, -10.13, -9.5, -9.21, -8.59, -7.96, -7.6, -6.97, -7.12, -6.31, -5.89, -5.23, -4.57, -3.91, -3.45, -2.28, -1.65, -1.65, -1.11, -1.11, -1.11, -1.12, -1.14, -1.09, -1.1, -1.1, -0.56, 0.0, 0.0, 0.0, 0.0, 0.0, 0.54, 1.08, 1.8, 1.84, 1.9, 1.86, 2.6, 2.6, 1.98, 1.55, 0.0, 0.0, 0.0, 0.0, 0.0, 0.0, 0.0, 2.07, 2.86, 1.24, -0.73, -1.5, -0.78, -0.76, 0.0, 0.0, 0.71, 2.06, 2.71, 3.47, 2.82, 2.06, 1.69, 1.04, 0.51, 0.0, 0.0, 0.0, 0.0, 0.0, 0.0, 0.0, 0.59, 0.57, 0.57, -10.3, -10.3, -10.06, -9.72, -9.72, -9.46, -9.46, -9.17, -9.17, -9.48, -9.8, -9.8, -10.12, -10.72, -11.36, -11.67, -11.67, -11.36, -11.03, -10.45, -10.45, -10.13, -9.84, -9.5, -9.21, -8.87, -8.24, -7.6, -7.6, -6.56, -5.92, -5.29, -4.63, -4.63, -3.94, -3.49, -2.83, -2.3, -1.65, -1.73, -1.16, -1.11, -1.18, -0.56, -0.54, -1.09, -1.18, -1.18, -1.18, -0.56, 0.0, 0.0, 0.0, 0.0, 0.54, 1.23, 1.13, 1.16, 2.23, 2.6, 3.6, 2.84, 1.41, 1.27, 0.0, 0.0, 0.0, 0.0, 0.0, 0.0, 1.6, 2.48, 0.76, -2.4, -3.96, -1.54, 0.77, 2.95, 3.69, 2.76, 2.14, 1.36, 0.68, 0.7, 0.71, 0.51, 0.53, 0.0, 0.0, -0.53, -0.65, -0.71, -0.71, -0.65, 0.0, 0.0, 0.0, 0.0, -10.3, -10.3, -10.06, -9.72, -9.72, -9.46, -9.17, -9.48, -9.17, -9.48, -9.5, -9.8, -10.12, -9.82, -10.43, -11.06, -11.06, -11.36, -11.03, -10.45, -10.45, -10.13, -9.84, -9.21, -8.87, -8.23, -8.24, -7.6, -7.6, -6.56, -5.26, -4.63, -3.97, -4.0, -4.0, -3.52, -2.86, -2.83, -2.3, -2.17, -1.65, -1.65, -1.18, -0.56, -0.57, -1.16, -1.09, -1.73, -1.73, -1.18, -1.1, -0.56, 0.0, 0.0, 0.0, 0.55, 0.57, 1.16, 1.9, 1.86, 2.12, 3.2, 1.8, 1.27, 0.0, 0.0, 0.0, 0.0, 0.0, 0.0, 0.53, 0.65, 0.96, 0.0, -1.6, -0.79, 2.35, 4.66, 5.35, 3.1, 0.7, 0.0, -0.71, -0.67, 0.0, 0.0, 0.0, 0.0, -0.99, -1.16, -1.16, -1.2, -1.24, -0.65, -0.61, -0.59, 0.0, 0.0, -10.06, -10.06, -10.06, -9.72, -9.46, -9.13, -9.72, -9.77, -9.17, -9.48, -9.19, -9.8, -10.12, -9.82, -9.82, -10.43, -11.06, -11.36, -11.03, -10.45, -10.45, -9.84, -9.5, -9.21, -8.87, -7.96, -7.96, -7.6, -6.96, -6.31, -5.26, -4.6, -3.94, -3.97, -3.52, -3.35, -3.35, -2.71, -2.86, -2.33, -2.19, -1.67, -1.12, -1.12, -1.06, -1.14, -1.69, -1.71, -1.73, -1.73, -1.73, -1.1, -0.57, 0.0, 0.0, 0.0, 0.0, 0.61, 1.49, 1.58, 1.26, 1.26, 0.0, 0.0, 0.87, 1.19, 0.71, 0.0, 0.0, 0.0, 0.0, 0.0, 1.05, 2.31, 0.78, 0.0, 0.77, 2.39, 2.35, 1.4, 0.0, -0.7, -0.71, -0.67, 0.0, 0.0, 0.0, -0.57, -1.6, -1.84, -1.61, -1.88, -1.9, -1.49, -1.16, -1.27, -0.57, -0.57, -10.06, -10.06, -9.72, -9.72, -9.46, -9.13, -9.46, -9.77, -9.17, -9.48, -9.19, -9.8, -10.12, -9.82, -9.82, -10.43, -11.36, -11.03, -10.75, -10.75, -10.43, -10.13, -9.5, -9.21, -8.59, -8.24, -7.6, -7.33, -6.7, -6.33, -5.69, -5.04, -4.4, -3.97, -3.32, -2.86, -2.89, -2.89, -2.89, -2.21, -2.21, -2.21, -1.71, -0.77, -0.54, -1.78, -2.33, -2.37, -2.23, -2.26, -1.63, -1.76, -1.12, -0.58, 0.0, 0.0, 0.0, 0.61, 1.24, 1.26, 0.8, 0.0, 0.0, 0.0, 0.0, 0.0, 0.0, 0.0, 0.0, 0.0, 0.0, 0.0, 0.76, 3.45, 2.31, 0.0, -0.78, -1.56, -2.33, -2.09, -1.4, 0.0, 0.0, 0.0, 0.0, 0.0, 0.0, -0.57, -1.13, -1.84, -1.61, -1.61, -1.88, -1.9, -1.88, -2.07, -1.8, -1.41, -9.72, -9.72, -9.72, -9.72, -9.46, -9.13, -9.46, -9.48, -9.17, -9.48, -9.19, -9.8, -9.8, -10.12, -9.82, -10.43, -10.75, -10.75, -10.75, -10.43, -10.13, -9.82, -9.21, -8.87, -8.58, -8.24, -7.6, -6.96, -6.97, -6.33, -5.69, -5.04, -4.6, -3.94, -3.49, -2.83, -2.86, -2.86, -2.21, -2.21, -2.21, -2.37, -2.26, -1.65, -1.07, -1.67, -2.86, -3.37, -2.92, -2.75, -2.29, -1.76, -1.65, -1.14, -0.59, 0.0, 0.0, 0.0, 0.71, 0.57, 0.57, 0.0, 0.0, 0.0, 0.0, 0.0, 0.0, 0.0, 0.0, 0.0, 0.0, 0.0, 0.71, 1.49, 2.39, 2.25, 0.0, -2.97, -4.84, -4.24, -2.14, -0.7, 0.0, 0.0, 0.0, 0.0, 0.0, 0.0, 0.0, 0.0, 0.0, 0.0, -0.53, -1.2, -1.88, -1.84, -2.07, -1.8, -9.72, -9.72, -9.72, -9.72, -9.46, -9.13, -9.46, -9.17, -9.17, -9.48, -9.5, -9.8, -9.8, -10.12, -9.82, -10.43, -10.75, -10.75, -10.75, -10.13, -9.82, -9.82, -9.19, -8.87, -8.24, -7.96, -7.33, -6.96, -6.97, -6.33, -5.69, -5.04, -5.29, -4.63, -3.97, -3.49, -2.83, -2.83, -2.3, -2.33, -2.33, -2.37, -2.4, -2.77, -2.31, -2.3, -3.01, -3.4, -3.45, -3.0, -3.0, -2.32, -1.67, -1.16, -0.54, -0.61, -0.57, 0.0, 0.0, 0.57, 0.0, 0.0, 0.0, 0.0, 0.0, -1.19, -0.85, -0.71, 0.0, 0.0, 0.0, 0.0, 0.0, 0.0, 2.13, 5.48, 3.96, 0.0, -2.23, -3.51, -2.06, -0.71, 0.0, 0.69, 0.71, 1.4, 2.0, 2.12, 1.3, 2.12, 1.3, 1.35, 0.57, 0.0, -1.4, -1.4, -1.84, -2.07, -10.01, -10.01, -9.72, -9.72, -9.46, -9.46, -9.46, -9.17, -9.17, -9.48, -9.19, -9.8, -9.8, -10.12, -9.82, -10.43, -10.75, -10.75, -10.43, -10.13, -9.82, -9.5, -9.19, -8.87, -7.96, -7.96, -7.33, -6.7, -6.58, -6.33, -5.69, -5.04, -5.29, -4.63, -3.97, -3.97, -3.49, -2.83, -2.83, -2.3, -2.3, -2.33, -2.89, -3.4, -4.03, -4.07, -2.73, -2.82, -2.84, -3.08, -2.82, -2.36, -2.18, -1.73, -1.73, -1.08, -1.11, 0.0, 0.0, 0.0, 0.0, 0.0, 0.0, 0.0, 0.0, 0.0, -0.76, -1.3, 0.0, 0.0, 0.0, 0.0, -0.85, -0.85, 0.0, 3.14, 3.91, 2.34, 0.0, 0.0, 0.0, 0.0, 0.67, 2.12, 2.83, 2.69, 2.0, 2.18, 2.23, 2.06, 2.12, 1.32, 0.67, 0.0, 0.0, -0.7, -1.33, -1.33, -10.01, -10.01, -10.01, -9.72, -9.46, -9.46, -9.46, -9.17, -9.48, -9.48, -9.19, -9.8, -9.8, -10.12, -9.82, -10.43, -10.75, -10.75, -10.43, -10.13, -9.82, -9.19, -8.87, -8.56, -8.24, -7.61, -7.61, -6.97, -6.58, -6.33, -5.69, -5.69, -5.29, -4.63, -4.42, -3.97, -3.97, -3.49, -2.97, -2.83, -2.83, -2.83, -2.86, -3.35, -3.97, -3.97, -2.73, -2.16, -2.4, -2.2, -2.2, -2.44, -2.44, -2.44, -2.22, -1.76, -1.2, -0.54, 0.0, 0.0, 0.0, -0.71, -0.54, 0.0, 0.0, 0.0, 0.0, 0.0, 0.0, 0.54, 0.0, 0.0, -0.85, -1.2, -1.49, -0.87, 0.0, 1.54, 3.02, 2.99, 3.4, 3.4, 3.61, 3.39, 3.53, 2.31, 1.44, 1.36, 0.69, 0.73, 0.69, 0.71, 0.0, 0.0, 0.0, -0.59, -0.59, -0.59, -10.01, -10.01, -10.01, -10.01, -9.46, -9.46, -9.46, -9.17, -9.48, -9.48, -9.19, -9.8, -9.8, -10.12, -10.12, -10.43, -10.43, -10.43, -10.13, -9.82, -9.21, -9.19, -8.87, -8.56, -7.95, -7.61, -7.61, -6.97, -6.58, -6.33, -5.92, -5.69, -5.29, -4.63, -4.63, -3.97, -3.97, -3.97, -3.49, -3.49, -3.49, -3.49, -3.32, -3.32, -3.49, -3.49, -2.86, -2.4, -2.29, -2.16, -1.88, -2.2, -2.22, -2.22, -2.48, -2.23, -1.88, -1.2, -0.71, 0.0, -0.71, -0.54, -1.2, 0.0, 0.0, 0.0, 1.19, 1.19, 0.85, 0.71, 0.0, -0.54, -1.49, -1.88, -3.16, -3.07, -1.63, 0.79, 3.87, 6.0, 7.13, 7.77, 6.4, 4.86, 3.53, 2.19, 1.4, 0.67, 0.0, 0.0, 0.0, 0.0, 0.0, 0.0, 0.0, 0.0, 0.0, 0.0, -9.66, -9.66, -9.66, -9.66, -9.13, -9.46, -9.46, -9.46, -9.48, -9.48, -9.48, -9.8, -9.8, -10.12, -10.43, -10.43, -10.43, -10.13, -10.13, -9.5, -9.5, -8.58, -8.56, -7.95, -7.95, -7.33, -6.97, -6.97, -6.58, -6.33, -5.92, -5.69, -5.29, -4.63, -4.63, -4.16, -3.97, -3.97, -3.97, -3.97, -3.97, -3.97, -3.49, -3.49, -3.49, -3.32, -3.32, -2.86, -2.89, -2.26, -2.32, -1.84, -2.2, -2.44, -2.22, -2.23, -1.84, -1.16, -0.65, -0.54, -0.54, -0.65, -1.2, -1.16, 0.0, 0.0, 1.19, 0.85, 1.74, 0.0, 0.0, -1.24, -2.21, -2.15, -2.3, -1.49, 0.0, 0.77, 2.99, 6.31, 8.61, 9.34, 7.88, 5.57, 3.47, 2.82, 1.36, 0.0, 0.0, 0.0, 0.0, -0.72, -0.74, -0.76, -0.78, -0.63, -0.63, -0.63, -9.42, -9.42, -9.42, -9.42, -9.13, -9.46, -9.46, -9.46, -9.17, -9.48, -9.48, -9.48, -9.8, -10.12, -10.4, -9.82, -9.82, -9.82, -9.5, -9.5, -9.19, -8.87, -8.56, -8.24, -7.61, -7.33, -6.97, -6.97, -6.97, -6.33, -6.33, -5.69, -5.04, -5.29, -4.63, -4.16, -4.16, -3.97, -3.97, -3.97, -3.97, -3.97, -3.97, -3.97, -3.97, -3.49, -3.52, -3.52, -3.35, -2.89, -2.75, -2.29, -2.32, -2.36, -2.4, -2.22, -2.22, -1.8, -1.16, -0.65, -0.65, -1.2, -1.4, -1.16, -0.51, 0.0, 0.0, 0.0, 0.0, 0.0, -1.24, -1.49, -1.49, -1.4, -1.4, 0.0, 0.0, 0.76, 2.28, 4.6, 7.12, 8.5, 6.97, 5.73, 4.95, 3.53, 2.06, 0.0, 0.0, -1.04, -1.11, -0.72, -0.76, -0.78, -0.72, -0.63, -0.63, -0.63, -9.42, -9.42, -9.42, -9.42, -9.42, -9.13, -9.46, -9.72, -9.17, -9.48, -9.48, -9.77, -9.8, -10.12, -10.12, -9.82, -9.82, -9.5, -9.5, -9.5, -8.87, -8.56, -8.24, -7.93, -7.61, -7.61, -6.97, -6.97, -6.97, -6.33, -6.33, -5.69, -5.04, -5.29, -4.63, -4.63, -4.16, -4.16, -4.16, -3.97, -3.97, -3.97, -3.97, -3.97, -3.97, -4.0, -3.52, -3.35, -3.35, -3.37, -2.92, -2.75, -2.96, -2.29, -2.36, -2.18, -2.4, -1.76, -1.27, -1.16, -1.2, -1.2, -1.2, -1.4, -0.61, 0.0, 0.0, -1.19, -2.73, -1.24, -1.49, -1.24, -1.49, -0.65, -0.61, 0.0, 0.0, 0.0, 2.26, 3.79, 4.71, 6.2, 6.14, 7.11, 6.42, 4.17, 1.39, 0.0, 0.0, -0.7, -1.35, -0.7, -0.7, -0.7, -0.7, -0.63, -0.63, -0.63, -9.42, -9.42, -9.42, -9.08, -9.42, -9.13, -9.46, -9.72, -9.72, -9.77, -9.77, -9.77, -9.8, -10.12, -10.12, -9.82, -9.5, -9.5, -9.21, -8.87, -8.59, -8.24, -8.24, -7.61, -7.61, -7.61, -6.97, -6.97, -6.97, -6.33, -6.33, -5.69, -5.45, -5.29, -4.63, -4.63, -4.63, -4.16, -4.16, -4.16, -4.16, -3.97, -3.97, -3.97, -4.0, -4.0, -3.52, -3.35, -3.56, -3.37, -3.37, -2.92, -2.92, -2.75, -2.77, -2.8, -2.36, -2.4, -1.76, -1.13, -1.16, -1.4, -1.88, -1.61, -1.2, -1.41, -1.19, -1.19, -1.19, -1.49, -0.76, -0.71, -0.76, -0.76, -0.76, 0.0, 0.0, 0.0, 1.6, 3.11, 3.09, 3.85, 7.01, 8.28, 7.67, 4.87, 2.06, 0.0, -0.7, -1.35, -1.23, -1.35, -1.35, -1.47, -0.7, -0.63, -0.63, -0.63, -9.08, -9.08, -9.08, -9.08, -9.42, -9.42, -9.46, -9.72, -10.06, -9.77, -9.77, -10.09, -9.8, -9.8, -9.8, -9.21, -9.21, -9.21, -9.21, -8.87, -8.59, -7.95, -7.93, -7.61, -7.32, -6.98, -6.97, -6.97, -6.97, -6.33, -6.33, -5.69, -5.95, -5.29, -5.06, -4.63, -4.63, -4.63, -4.63, -4.16, -4.16, -4.16, -3.97, -3.97, -3.97, -4.0, -4.0, -3.35, -3.56, -3.37, -3.37, -3.4, -3.4, -3.4, -3.42, -3.0, -3.04, -2.18, -2.2, -1.8, -1.84, -1.61, -1.88, -2.21, -2.5, -2.53, -1.6, -0.79, 0.0, -0.88, -0.87, -0.76, -0.65, -0.76, -0.76, 0.0, 0.0, 0.0, 0.66, 2.11, 2.2, 3.27, 5.41, 7.93, 6.42, 4.18, 0.0, -0.63, -1.27, -1.41, -2.11, -1.94, -1.94, -2.29, -1.35, -1.23, -1.23, -1.23, -9.08, -9.08, -9.08, -9.08, -9.42, -9.42, -9.46, -9.72, -9.77, -9.77, -10.09, -10.09, -9.8, -9.8, -9.5, -9.5, -9.21, -9.21, -8.87, -8.59, -8.24, -7.95, -7.61, -7.32, -6.98, -6.98, -6.97, -6.97, -6.97, -6.33, -6.33, -6.08, -5.95, -5.29, -5.29, -4.63, -4.63, -4.63, -4.63, -4.63, -4.63, -4.16, -4.16, -3.97, -3.97, -4.2, -4.0, -4.0, -4.03, -3.56, -3.37, -3.6, -3.4, -3.64, -3.42, -3.45, -3.04, -2.82, -2.84, -2.48, -2.51, -2.23, -2.53, -2.53, -2.79, -3.58, -2.53, -0.99, -0.76, -0.76, -0.76, -1.6, -1.6, -1.33, -0.76, -0.65, 0.0, 0.0, 0.61, 0.66, 1.47, 2.29, 3.2, 3.85, 3.95, 0.0, 0.0, -0.57, -1.33, -1.33, -2.0, -2.66, -3.38, -2.88, -2.0, -1.76, -1.76, -1.76, -9.08, -9.08, -9.08, -9.08, -9.42, -9.42, -9.46, -9.72, -9.77, -9.77, -9.77, -9.77, -9.77, -9.19, -9.5, -9.5, -9.21, -8.87, -8.59, -8.59, -8.24, -8.24, -7.61, -7.32, -6.98, -6.98, -6.71, -6.97, -6.71, -6.71, -6.33, -6.34, -5.95, -5.7, -5.29, -5.29, -4.63, -4.63, -4.63, -4.63, -4.63, -4.63, -4.63, -4.16, -3.97, -3.97, -4.2, -4.0, -4.03, -4.03, -3.81, -4.05, -4.05, -4.08, -3.42, -3.45, -3.47, -3.22, -2.84, -2.86, -2.58, -2.84, -3.14, -3.14, -3.35, -2.84, -2.68, -2.21, -1.9, -1.26, -1.58, -1.49, -1.6, -2.41, -1.4, -0.65, -0.65, 0.0, 0.0, 0.0, 0.66, 0.73, 1.47, 1.47, 0.0, 0.0, -0.7, -0.63, -1.16, -1.33, -1.8, -2.73, -3.07, -3.43, -1.8, -0.61, -0.61, -0.61, -8.5, -8.5, -9.08, -9.08, -9.42, -9.13, -9.46, -9.72, -10.06, -9.77, -9.48, -9.48, -9.48, -9.19, -9.19, -9.19, -8.59, -8.59, -8.59, -8.23, -8.24, -7.61, -7.61, -6.98, -6.98, -6.98, -6.71, -6.71, -6.71, -6.98, -6.61, -6.34, -6.34, -5.95, -5.04, -5.04, -5.04, -5.29, -4.84, -4.63, -4.63, -4.63, -4.63, -4.63, -4.63, -4.42, -3.97, -4.0, -4.0, -4.03, -4.05, -4.05, -4.05, -4.08, -3.84, -3.85, -3.72, -3.47, -3.49, -3.49, -2.86, -3.43, -3.35, -3.72, -3.72, -3.43, -3.48, -3.16, -1.9, -1.26, -2.12, -2.8, -2.86, -3.22, -2.15, -1.4, -0.65, 0.0, 0.0, 0.0, 0.0, 0.0, 0.0, 0.0, 0.0, 0.0, -0.7, -1.36, -1.33, -2.07, -1.94, -2.66, -3.16, -2.21, 0.0, 2.63, 2.63, 2.63, -8.78, -8.78, -8.5, -9.08, -9.08, -9.13, -9.13, -9.46, -9.46, -9.17, -9.17, -9.17, -9.17, -9.19, -9.19, -8.87, -8.87, -8.59, -8.23, -8.24, -7.96, -7.61, -6.98, -6.98, -6.98, -6.71, -6.71, -6.98, -6.98, -6.98, -6.98, -6.98, -6.61, -6.34, -5.69, -5.04, -5.04, -5.04, -5.04, -5.04, -5.04, -4.6, -4.63, -4.63, -4.63, -4.63, -4.42, -4.66, -4.0, -4.03, -4.71, -4.46, -4.32, -4.08, -3.84, -4.1, -3.85, -4.12, -4.12, -3.78, -3.48, -3.43, -3.43, -3.88, -4.27, -4.0, -3.79, -2.23, -0.71, -0.57, -1.9, -2.8, -2.8, -2.4, -2.8, -2.21, -1.49, -1.2, -0.65, -0.65, 0.0, 0.0, 0.74, 1.53, 2.11, 1.38, 0.0, -1.36, -2.73, -3.43, -3.38, -1.61, -0.63, 1.34, 3.09, 4.47, 4.47, 4.47, -8.78, -8.78, -8.5, -8.82, -8.82, -9.13, -9.13, -9.46, -9.46, -9.17, -9.17, -9.17, -9.17, -8.87, -8.58, -8.87, -8.87, -8.87, -8.24, -8.24, -7.6, -7.61, -7.33, -6.98, -6.98, -6.71, -6.71, -6.98, -6.98, -6.98, -6.98, -6.98, -6.98, -6.61, -6.34, -5.95, -5.95, -5.69, -5.69, -5.26, -5.04, -5.04, -5.29, -4.63, -4.63, -4.63, -4.63, -4.66, -4.44, -4.69, -4.71, -4.71, -4.73, -4.47, -4.47, -4.47, -4.47, -4.12, -3.84, -4.12, -3.79, -3.73, -4.0, -4.27, -4.27, -4.37, -4.07, -2.86, -1.8, -0.71, -1.49, -1.49, -0.71, -0.71, -1.24, -2.23, -2.8, -1.9, -1.9, -1.2, -1.2, -0.61, 0.71, 3.11, 3.91, 3.04, 0.77, -1.49, -3.14, -3.14, -1.24, 1.34, 2.91, 3.82, 4.43, 4.43, 4.43, 4.43, -8.78, -8.78, -8.5, -8.5, -8.82, -8.53, -8.85, -9.13, -9.13, -9.17, -8.87, -8.87, -8.87, -8.87, -8.58, -8.58, -8.24, -8.24, -8.24, -7.96, -7.33, -7.61, -6.97, -6.98, -6.71, -6.71, -6.71, -6.98, -6.98, -6.98, -6.98, -6.98, -6.98, -6.98, -6.98, -6.34, -6.34, -6.34, -6.08, -5.69, -5.69, -5.45, -5.29, -5.29, -5.06, -5.06, -4.63, -4.66, -4.66, -4.69, -4.71, -5.1, -4.73, -4.47, -4.75, -4.75, -4.47, -4.75, -4.45, -4.43, -4.11, -4.07, -4.0, -4.0, -4.4, -4.55, -4.07, -3.48, -2.58, -2.41, -0.85, 0.0, 0.0, 0.0, 0.0, -0.54, -2.21, -2.8, -2.5, -1.9, -1.2, -0.61, 0.0, 1.47, 3.11, 3.11, 1.47, 0.0, -1.79, -0.6, 2.15, 3.6, 4.73, 4.24, 4.3, 4.43, 4.43, 4.43, -8.78, -8.78, -8.5, -8.5, -8.5, -8.53, -8.53, -8.85, -8.85, -8.56, -8.56, -8.87, -8.87, -8.87, -8.24, -8.24, -8.24, -8.24, -8.24, -7.6, -7.61, -7.33, -6.97, -6.71, -6.71, -6.71, -6.71, -6.98, -6.98, -6.98, -7.32, -7.32, -6.98, -6.98, -6.98, -6.98, -6.98, -6.98, -6.34, -6.34, -5.95, -5.95, -5.7, -5.29, -5.29, -5.06, -5.06, -5.32, -5.08, -5.09, -5.09, -5.1, -5.1, -5.1, -5.08, -5.08, -5.08, -5.06, -4.75, -4.74, -4.43, -4.11, -4.29, -4.55, -4.8, -4.8, -4.55, -4.37, -3.78, -3.16, -1.49, -0.71, -0.57, 0.0, 0.0, 0.0, -1.4, -2.86, -2.86, -2.21, -1.2, -0.61, -0.7, 0.0, 0.76, 1.55, 1.42, 0.0, -0.0, 2.23, 4.09, 4.27, 4.52, 3.82, 4.24, 5.16, 5.16, 5.16, -7.9, -7.9, -8.5, -8.5, -8.5, -8.24, -8.53, -8.53, -8.85, -8.56, -8.56, -8.56, -8.24, -8.24, -7.96, -8.24, -8.24, -8.24, -7.6, -7.6, -7.61, -6.97, -6.97, -6.71, -6.71, -6.71, -6.71, -6.98, -6.98, -6.98, -7.32, -7.32, -7.32, -7.32, -7.32, -7.32, -6.98, -6.98, -6.7, -6.34, -6.34, -5.95, -5.95, -5.7, -5.7, -5.29, -5.06, -5.06, -5.08, -5.34, -5.09, -5.1, -5.38, -5.1, -5.38, -5.08, -5.08, -5.37, -5.06, -5.06, -4.74, -4.71, -4.65, -4.55, -4.55, -4.8, -4.55, -4.55, -4.55, -4.6, -2.86, -1.9, -0.6, -0.6, -0.8, -1.24, -1.4, -2.15, -3.16, -1.88, -1.4, -1.16, -0.7, -0.78, -0.79, 0.0, 0.75, 0.71, 1.7, 4.0, 4.09, 3.49, 3.45, 3.45, 4.0, 4.0, 4.0, 4.0, -7.9, -7.9, -8.22, -8.22, -8.22, -7.93, -8.24, -8.24, -8.24, -8.56, -8.24, -8.24, -8.24, -7.96, -7.96, -7.96, -7.96, -7.6, -7.6, -7.33, -7.24, -6.97, -6.97, -6.97, -6.97, -6.97, -6.71, -6.98, -6.98, -7.32, -7.32, -7.32, -7.32, -7.32, -7.32, -7.32, -6.98, -6.98, -6.7, -6.7, -6.34, -6.34, -6.34, -5.95, -5.7, -5.7, -5.7, -5.72, -5.72, -5.72, -5.72, -5.72, -5.38, -5.1, -5.38, -5.69, -5.65, -5.37, -5.37, -5.06, -5.01, -4.71, -4.71, -4.65, -4.55, -4.8, -4.8, -4.55, -4.93, -4.65, -4.0, -1.49, 0.0, 0.0, -0.57, -0.71, -1.49, -1.4, -1.4, -1.4, -1.4, -1.33, -1.27, -1.63, -1.5, -0.78, 0.0, 0.0, 0.61, 2.68, 3.6, 3.45, 3.14, 3.49, 4.4, 4.4, 4.4, 4.4, -7.9, -7.9, -7.9, -8.22, -8.22, -7.93, -8.24, -8.24, -8.24, -8.24, -7.95, -7.95, -8.24, -7.6, -7.6, -7.6, -7.6, -7.6, -7.33, -7.61, -6.97, -6.97, -6.97, -6.97, -6.97, -6.97, -6.71, -6.98, -6.98, -6.98, -7.32, -7.32, -7.61, -7.61, -7.61, -7.32, -6.98, -6.98, -6.7, -6.98, -6.98, -6.34, -6.34, -6.34, -6.34, -6.08, -5.7, -5.98, -5.72, -5.72, -6.0, -5.72, -5.71, -5.71, -5.69, -5.69, -5.98, -5.65, -5.65, -5.06, -5.35, -5.01, -4.94, -4.65, -4.93, -4.55, -4.8, -4.55, -4.93, -4.65, -4.07, -1.8, 0.0, 0.0, 0.0, 0.0, 0.0, -0.65, -0.76, -1.4, -1.33, -1.49, -1.55, -2.35, -1.62, -0.77, 0.0, 0.0, 0.7, 2.17, 3.32, 3.45, 4.09, 4.73, 4.73, 5.05, 5.05, 5.05, -7.9, -7.9, -7.9, -8.22, -8.22, -7.93, -7.93, -8.24, -8.24, -8.24, -7.95, -7.95, -7.89, -7.6, -7.6, -7.6, -7.6, -7.6, -7.33, -7.24, -6.97, -6.97, -6.97, -6.58, -6.97, -6.97, -6.71, -6.71, -6.98, -6.98, -7.32, -7.32, -7.61, -7.61, -7.61, -7.61, -7.32, -6.98, -6.98, -6.98, -6.98, -6.98, -6.98, -6.34, -6.34, -6.34, -6.08, -6.35, -6.35, -6.35, -6.35, -6.34, -6.01, -5.71, -6.01, -5.69, -5.69, -5.98, -5.65, -5.65, -5.59, -5.35, -5.29, -4.94, -4.84, -4.93, -4.55, -4.55, -4.55, -4.55, -4.07, -2.48, -0.61, 0.0, 0.0, 0.0, 0.0, 0.0, -0.65, -1.4, -1.33, -2.3, -2.2, -2.35, -2.35, -0.8, 0.0, 0.79, 0.74, 1.24, 2.68, 3.45, 4.12, 4.73, 5.09, 5.82, 5.82, 5.82, -7.9, -7.9, -7.9, -8.22, -8.22, -7.93, -7.93, -8.24, -8.24, -8.24, -7.95, -7.95, -7.89, -7.6, -7.6, -7.6, -7.6, -7.6, -7.33, -7.24, -6.97, -6.97, -6.97, -6.58, -6.97, -6.97, -6.71, -6.71, -6.98, -6.98, -7.32, -7.32, -7.61, -7.61, -7.61, -7.61, -7.32, -6.98, -6.98, -6.98, -6.98, -6.98, -6.98, -6.34, -6.34, -6.34, -6.08, -6.35, -6.35, -6.35, -6.35, -6.34, -6.01, -5.71, -6.01, -5.69, -5.69, -5.98, -5.65, -5.65, -5.59, -5.35, -5.29, -4.94, -4.84, -4.93, -4.55, -4.55, -4.55, -4.55, -4.07, -2.48, -0.61, 0.0, 0.0, 0.0, 0.0, 0.0, -0.65, -1.4, -1.33, -2.07, -2.0, -2.2, -2.31, -1.5, 0.0, 0.76, 0.77, 0.73, 1.86, 2.91, 3.84, 4.46, 4.84, 5.43, 5.43, 5.43]}]